Time,TemperatureF,DewpointF,PressureIn,WindDirection,WindDirectionDegrees,WindSpeedMPH,WindSpeedGustMPH,Humidity,HourlyPrecipIn,Conditions,Clouds,dailyrainin,SoftwareType,DateUTC
2013-01-26 00:00:00,9.3,4.7,29.93,SSE,158,0.0,0.0,81,0.00,CLR,,0.00,WeatherDisplay:10.37,2013-01-26 05:00:00,
2013-01-26 00:01:00,9.1,4.5,29.93,SSE,158,0.0,0.0,81,0.00,CLR,,0.00,WeatherDisplay:10.37,2013-01-26 05:01:00,
2013-01-26 00:02:00,9.1,4.5,29.93,SSE,158,0.0,0.0,81,0.00,CLR,,0.00,WeatherDisplay:10.37,2013-01-26 05:02:00,
2013-01-26 00:05:00,9.1,4.5,29.93,SSW,202,0.0,0.0,81,0.00,CLR,,0.00,WeatherDisplay:10.37,2013-01-26 05:05:00,
2013-01-26 00:06:00,9.1,4.5,29.93,WNW,292,0.0,0.0,81,0.00,CLR,,0.00,WeatherDisplay:10.37,2013-01-26 05:06:00,
2013-01-26 00:08:00,9.0,4.3,29.90,SSW,202,0.0,0.0,81,0.00,CLR,,0.00,WeatherDisplay:10.37,2013-01-26 05:08:00,
2013-01-26 00:10:00,9.1,4.5,29.90,SW,225,1.1,0.0,81,0.00,CLR,,0.00,WeatherDisplay:10.37,2013-01-26 05:10:00,
2013-01-26 00:11:00,9.1,4.5,29.90,NNE,22,0.0,0.0,81,0.00,CLR,,0.00,WeatherDisplay:10.37,2013-01-26 05:11:00,
2013-01-26 00:13:00,9.1,4.5,29.90,SSE,158,0.0,0.0,81,0.00,CLR,,0.00,WeatherDisplay:10.37,2013-01-26 05:13:00,
2013-01-26 00:15:00,9.0,4.3,29.90,South,180,0.0,0.0,81,0.00,CLR,,0.00,WeatherDisplay:10.37,2013-01-26 05:15:00,
2013-01-26 00:16:00,9.1,4.5,29.90,South,180,0.0,0.0,81,0.00,CLR,,0.00,WeatherDisplay:10.37,2013-01-26 05:16:00,
2013-01-26 00:18:00,9.1,4.5,29.90,WSW,248,0.0,0.0,81,0.00,CLR,,0.00,WeatherDisplay:10.37,2013-01-26 05:18:00,
2013-01-26 00:20:00,9.1,4.5,29.90,SSW,202,0.0,0.0,81,0.00,CLR,,0.00,WeatherDisplay:10.37,2013-01-26 05:20:00,
2013-01-26 00:21:00,9.1,4.5,29.90,SSW,202,0.0,0.0,81,0.00,CLR,,0.00,WeatherDisplay:10.37,2013-01-26 05:21:00,
2013-01-26 00:23:00,8.8,4.1,29.93,SSW,202,0.0,0.0,81,0.00,CLR,,0.00,WeatherDisplay:10.37,2013-01-26 05:23:00,
2013-01-26 00:25:00,8.8,4.1,29.93,SSW,202,0.0,0.0,81,0.00,CLR,,0.00,WeatherDisplay:10.37,2013-01-26 05:25:00,
2013-01-26 00:26:00,8.8,4.1,29.93,SSW,202,0.0,0.0,81,0.00,CLR,,0.00,WeatherDisplay:10.37,2013-01-26 05:26:00,
2013-01-26 00:27:00,8.6,4.0,29.93,SSW,202,0.0,0.0,81,0.00,CLR,,0.00,WeatherDisplay:10.37,2013-01-26 05:27:00,
2013-01-26 00:29:00,8.6,4.0,29.93,SSW,202,0.0,0.0,81,0.00,CLR,,0.00,WeatherDisplay:10.37,2013-01-26 05:29:00,
2013-01-26 00:31:00,8.6,4.0,29.93,South,180,0.0,0.0,81,0.00,CLR,,0.00,WeatherDisplay:10.37,2013-01-26 05:31:00,
2013-01-26 00:32:00,8.6,4.0,29.93,SSW,202,0.0,0.0,81,0.00,CLR,,0.00,WeatherDisplay:10.37,2013-01-26 05:32:00,
2013-01-26 00:34:00,8.8,4.1,29.93,SSE,158,0.0,0.0,81,0.00,CLR,,0.00,WeatherDisplay:10.37,2013-01-26 05:34:00,
2013-01-26 00:36:00,8.6,4.0,29.93,SSE,158,0.0,0.0,81,0.00,CLR,,0.00,WeatherDisplay:10.37,2013-01-26 05:36:00,
2013-01-26 00:37:00,8.6,4.0,29.93,SSE,158,0.0,0.0,81,0.00,CLR,,0.00,WeatherDisplay:10.37,2013-01-26 05:37:00,
2013-01-26 00:39:00,8.4,3.8,29.90,SSW,202,0.0,0.0,81,0.00,CLR,,0.00,WeatherDisplay:10.37,2013-01-26 05:39:00,
2013-01-26 00:41:00,8.4,3.8,29.90,SSW,202,0.0,0.0,81,0.00,CLR,,0.00,WeatherDisplay:10.37,2013-01-26 05:41:00,
2013-01-26 00:42:00,8.4,3.8,29.90,South,180,0.0,0.0,81,0.00,CLR,,0.00,WeatherDisplay:10.37,2013-01-26 05:42:00,
2013-01-26 00:44:00,8.4,3.8,29.90,SSE,158,0.0,0.0,81,0.00,CLR,,0.00,WeatherDisplay:10.37,2013-01-26 05:44:00,
2013-01-26 00:46:00,8.2,3.6,29.90,WSW,248,0.0,0.0,81,0.00,CLR,,0.00,WeatherDisplay:10.37,2013-01-26 05:46:00,
2013-01-26 00:47:00,8.2,3.6,29.90,West,270,0.0,0.0,81,0.00,CLR,,0.00,WeatherDisplay:10.37,2013-01-26 05:47:00,
2013-01-26 00:49:00,8.4,3.8,29.90,WSW,248,0.0,0.0,81,0.00,CLR,,0.00,WeatherDisplay:10.37,2013-01-26 05:49:00,
2013-01-26 00:51:00,8.4,3.8,29.90,WSW,248,0.0,0.0,81,0.00,CLR,,0.00,WeatherDisplay:10.37,2013-01-26 05:51:00,
2013-01-26 00:52:00,8.4,3.8,29.90,WSW,248,0.0,0.0,81,0.00,CLR,,0.00,WeatherDisplay:10.37,2013-01-26 05:52:00,
2013-01-26 00:54:00,8.2,3.6,29.93,SSE,158,0.0,0.0,81,0.00,CLR,,0.00,WeatherDisplay:10.37,2013-01-26 05:54:00,
2013-01-26 00:56:00,8.1,3.4,29.93,NW,315,0.0,0.0,81,0.00,CLR,,0.00,WeatherDisplay:10.37,2013-01-26 05:56:00,
2013-01-26 00:57:00,8.1,3.4,29.93,NW,315,0.0,0.0,81,0.00,CLR,,0.00,WeatherDisplay:10.37,2013-01-26 05:57:00,
2013-01-26 00:58:00,8.1,3.4,29.93,NW,315,0.0,0.0,81,0.00,CLR,,0.00,WeatherDisplay:10.37,2013-01-26 05:58:00,
2013-01-26 01:00:00,8.1,3.4,29.93,WSW,248,0.0,0.0,81,0.00,CLR,,0.00,WeatherDisplay:10.37,2013-01-26 06:00:00,
2013-01-26 01:02:00,8.1,3.4,29.93,SSW,202,0.0,0.0,81,0.00,CLR,,0.00,WeatherDisplay:10.37,2013-01-26 06:02:00,
2013-01-26 01:03:00,8.1,3.4,29.93,SSW,202,0.0,0.0,81,0.00,CLR,,0.00,WeatherDisplay:10.37,2013-01-26 06:03:00,
2013-01-26 01:05:00,7.9,3.3,29.93,SW,225,0.0,0.0,81,0.00,CLR,,0.00,WeatherDisplay:10.37,2013-01-26 06:05:00,
2013-01-26 01:07:00,7.9,3.3,29.93,West,270,0.0,0.0,81,0.00,CLR,,0.00,WeatherDisplay:10.37,2013-01-26 06:07:00,
2013-01-26 01:08:00,7.9,3.3,29.93,WSW,248,0.0,0.0,81,0.00,CLR,,0.00,WeatherDisplay:10.37,2013-01-26 06:08:00,
2013-01-26 01:11:00,7.9,3.3,29.93,NNW,338,0.0,0.0,81,0.00,CLR,,0.00,WeatherDisplay:10.37,2013-01-26 06:11:00,
2013-01-26 01:12:00,7.9,3.3,29.93,WNW,292,0.0,0.0,81,0.00,CLR,,0.00,WeatherDisplay:10.37,2013-01-26 06:12:00,
2013-01-26 01:13:00,7.9,3.3,29.93,NW,315,0.0,0.0,81,0.00,CLR,,0.00,WeatherDisplay:10.37,2013-01-26 06:13:00,
2013-01-26 01:16:00,7.9,3.3,29.93,WNW,292,0.0,0.0,81,0.00,CLR,,0.00,WeatherDisplay:10.37,2013-01-26 06:16:00,
2013-01-26 01:17:00,7.9,3.3,29.93,WSW,248,0.0,0.0,81,0.00,CLR,,0.00,WeatherDisplay:10.37,2013-01-26 06:17:00,
2013-01-26 01:18:00,7.9,3.3,29.93,WNW,292,0.0,0.0,81,0.00,CLR,,0.00,WeatherDisplay:10.37,2013-01-26 06:18:00,
2013-01-26 01:21:00,7.9,3.3,29.93,WSW,248,0.0,0.0,81,0.00,CLR,,0.00,WeatherDisplay:10.37,2013-01-26 06:21:00,
2013-01-26 01:22:00,7.9,3.3,29.93,WSW,248,0.0,0.0,81,0.00,CLR,,0.00,WeatherDisplay:10.37,2013-01-26 06:22:00,
2013-01-26 01:24:00,7.9,3.3,29.93,NNW,338,0.0,0.0,81,0.00,CLR,,0.00,WeatherDisplay:10.37,2013-01-26 06:24:00,
2013-01-26 01:27:00,8.1,3.4,29.93,West,270,0.0,0.0,81,0.00,CLR,,0.00,WeatherDisplay:10.37,2013-01-26 06:27:00,
2013-01-26 01:29:00,8.2,3.6,29.93,WNW,292,0.0,0.0,81,0.00,CLR,,0.00,WeatherDisplay:10.37,2013-01-26 06:29:00,
2013-01-26 01:32:00,8.4,3.8,29.93,WSW,248,0.0,0.0,81,0.00,CLR,,0.00,WeatherDisplay:10.37,2013-01-26 06:32:00,
2013-01-26 01:33:00,8.4,3.8,29.93,WNW,292,0.0,0.0,81,0.00,CLR,,0.00,WeatherDisplay:10.37,2013-01-26 06:33:00,
2013-01-26 01:34:00,8.4,3.8,29.93,WSW,248,0.0,0.0,81,0.00,CLR,,0.00,WeatherDisplay:10.37,2013-01-26 06:34:00,
2013-01-26 01:37:00,8.4,3.8,29.93,WNW,292,0.0,0.0,81,0.00,CLR,,0.00,WeatherDisplay:10.37,2013-01-26 06:37:00,
2013-01-26 01:38:00,8.2,3.6,29.90,WSW,248,0.0,0.0,81,0.00,CLR,,0.00,WeatherDisplay:10.37,2013-01-26 06:38:00,
2013-01-26 01:39:00,8.2,3.6,29.90,NNW,338,0.0,0.0,81,0.00,CLR,,0.00,WeatherDisplay:10.37,2013-01-26 06:39:00,
2013-01-26 01:42:00,8.2,3.6,29.90,NW,315,0.0,0.0,81,0.00,CLR,,0.00,WeatherDisplay:10.37,2013-01-26 06:42:00,
2013-01-26 01:43:00,8.2,3.6,29.90,WNW,292,0.0,0.0,81,0.00,CLR,,0.00,WeatherDisplay:10.37,2013-01-26 06:43:00,
2013-01-26 01:44:00,8.4,3.8,29.90,WNW,292,0.0,0.0,81,0.00,CLR,,0.00,WeatherDisplay:10.37,2013-01-26 06:44:00,
2013-01-26 01:47:00,8.2,3.6,29.90,WNW,292,0.0,0.0,81,0.00,CLR,,0.00,WeatherDisplay:10.37,2013-01-26 06:47:00,
2013-01-26 01:48:00,8.2,3.6,29.90,WSW,248,0.0,0.0,81,0.00,CLR,,0.00,WeatherDisplay:10.37,2013-01-26 06:48:00,
2013-01-26 01:49:00,8.2,3.6,29.90,WNW,292,1.1,0.0,81,0.00,CLR,,0.00,WeatherDisplay:10.37,2013-01-26 06:49:00,
2013-01-26 01:52:00,8.2,3.6,29.90,WNW,292,3.5,3.5,81,0.00,CLR,,0.00,WeatherDisplay:10.37,2013-01-26 06:52:00,
2013-01-26 01:53:00,8.2,3.6,29.93,WNW,292,3.5,3.5,81,0.00,CLR,,0.00,WeatherDisplay:10.37,2013-01-26 06:53:00,
2013-01-26 01:54:00,8.2,3.6,29.93,WSW,248,0.0,0.0,81,0.00,CLR,,0.00,WeatherDisplay:10.37,2013-01-26 06:54:00,
2013-01-26 01:57:00,8.2,3.6,29.93,WNW,292,0.0,0.0,81,0.00,CLR,,0.00,WeatherDisplay:10.37,2013-01-26 06:57:00,
2013-01-26 01:58:00,8.2,3.6,29.93,West,270,0.0,0.0,81,0.00,CLR,,0.00,WeatherDisplay:10.37,2013-01-26 06:58:00,
2013-01-26 02:00:00,8.2,3.6,29.93,WSW,248,0.0,0.0,81,0.00,CLR,,0.00,WeatherDisplay:10.37,2013-01-26 07:00:00,
2013-01-26 02:02:00,8.2,3.6,29.93,West,270,0.0,0.0,81,0.00,CLR,,0.00,WeatherDisplay:10.37,2013-01-26 07:02:00,
2013-01-26 02:03:00,8.2,3.6,29.93,WSW,248,0.0,0.0,81,0.00,CLR,,0.00,WeatherDisplay:10.37,2013-01-26 07:03:00,
2013-01-26 02:05:00,8.2,3.6,29.93,WSW,248,0.0,0.0,81,0.00,CLR,,0.00,WeatherDisplay:10.37,2013-01-26 07:05:00,
2013-01-26 02:07:00,8.4,3.8,29.93,West,270,0.0,0.0,81,0.00,CLR,,0.00,WeatherDisplay:10.37,2013-01-26 07:07:00,
2013-01-26 02:08:00,8.4,3.8,29.93,WSW,248,0.0,0.0,81,0.00,CLR,,0.00,WeatherDisplay:10.37,2013-01-26 07:08:00,
2013-01-26 02:10:00,8.4,3.8,29.93,WSW,248,0.0,0.0,81,0.00,CLR,,0.00,WeatherDisplay:10.37,2013-01-26 07:10:00,
2013-01-26 02:13:00,8.4,3.8,29.93,WNW,292,1.6,0.0,81,0.00,CLR,,0.00,WeatherDisplay:10.37,2013-01-26 07:13:00,
2013-01-26 02:15:00,8.4,3.8,29.93,WNW,292,3.5,0.0,81,0.00,CLR,,0.00,WeatherDisplay:10.37,2013-01-26 07:15:00,
2013-01-26 02:18:00,8.4,3.8,29.93,WNW,292,1.1,0.0,81,0.00,CLR,,0.00,WeatherDisplay:10.37,2013-01-26 07:18:00,
2013-01-26 02:21:00,8.4,3.8,29.93,NW,315,2.3,0.0,81,0.00,CLR,,0.00,WeatherDisplay:10.37,2013-01-26 07:21:00,
2013-01-26 02:23:00,8.4,3.8,29.95,WNW,292,3.5,3.5,81,0.00,CLR,,0.00,WeatherDisplay:10.37,2013-01-26 07:23:00,
2013-01-26 02:26:00,8.1,3.4,29.95,WSW,248,2.3,2.3,81,0.00,CLR,,0.00,WeatherDisplay:10.37,2013-01-26 07:26:00,
2013-01-26 02:28:00,8.1,3.4,29.95,SSW,202,0.0,0.0,81,0.00,CLR,,0.00,WeatherDisplay:10.37,2013-01-26 07:28:00,
2013-01-26 02:29:00,8.1,3.4,29.95,SSW,202,0.0,0.0,81,0.00,CLR,,0.00,WeatherDisplay:10.37,2013-01-26 07:29:00,
2013-01-26 02:31:00,7.9,3.3,29.95,SSW,202,0.0,0.0,81,0.00,CLR,,0.00,WeatherDisplay:10.37,2013-01-26 07:31:00,
2013-01-26 02:33:00,7.9,3.3,29.95,SSW,202,0.0,0.0,81,0.00,CLR,,0.00,WeatherDisplay:10.37,2013-01-26 07:33:00,
2013-01-26 02:34:00,7.7,3.1,29.95,SSW,202,0.0,0.0,81,0.00,CLR,,0.00,WeatherDisplay:10.37,2013-01-26 07:34:00,
2013-01-26 02:36:00,7.7,3.1,29.95,WSW,248,0.0,0.0,81,0.00,CLR,,0.00,WeatherDisplay:10.37,2013-01-26 07:36:00,
2013-01-26 02:38:00,7.7,3.1,29.95,WSW,248,0.0,0.0,81,0.00,CLR,,0.00,WeatherDisplay:10.37,2013-01-26 07:38:00,
2013-01-26 02:39:00,7.7,3.1,29.95,NNW,338,0.0,0.0,81,0.00,CLR,,0.00,WeatherDisplay:10.37,2013-01-26 07:39:00,
2013-01-26 02:41:00,7.7,3.1,29.95,WSW,248,0.0,0.0,81,0.00,CLR,,0.00,WeatherDisplay:10.37,2013-01-26 07:41:00,
2013-01-26 02:43:00,7.7,3.1,29.95,West,270,0.0,0.0,81,0.00,CLR,,0.00,WeatherDisplay:10.37,2013-01-26 07:43:00,
2013-01-26 02:44:00,7.7,3.1,29.95,WSW,248,0.0,0.0,81,0.00,CLR,,0.00,WeatherDisplay:10.37,2013-01-26 07:44:00,
2013-01-26 02:46:00,7.5,2.9,29.95,NNW,338,0.0,0.0,81,0.00,CLR,,0.00,WeatherDisplay:10.37,2013-01-26 07:46:00,
2013-01-26 02:48:00,7.5,2.9,29.95,WNW,292,0.0,0.0,81,0.00,CLR,,0.00,WeatherDisplay:10.37,2013-01-26 07:48:00,
2013-01-26 02:49:00,7.5,2.9,29.95,WNW,292,0.0,0.0,81,0.00,CLR,,0.00,WeatherDisplay:10.37,2013-01-26 07:49:00,
2013-01-26 02:52:00,7.3,2.7,29.95,WSW,248,0.0,0.0,81,0.00,CLR,,0.00,WeatherDisplay:10.37,2013-01-26 07:52:00,
2013-01-26 02:53:00,7.3,2.7,29.93,NW,315,0.0,0.0,81,0.00,CLR,,0.00,WeatherDisplay:10.37,2013-01-26 07:53:00,
2013-01-26 02:54:00,7.3,2.7,29.93,WNW,292,0.0,0.0,81,0.00,CLR,,0.00,WeatherDisplay:10.37,2013-01-26 07:54:00,
2013-01-26 02:57:00,7.3,2.7,29.93,West,270,0.0,0.0,81,0.00,CLR,,0.00,WeatherDisplay:10.37,2013-01-26 07:57:00,
2013-01-26 02:58:00,7.3,2.7,29.93,WNW,292,0.0,0.0,81,0.00,CLR,,0.00,WeatherDisplay:10.37,2013-01-26 07:58:00,
2013-01-26 02:59:00,7.3,2.7,29.93,WSW,248,0.0,0.0,81,0.00,CLR,,0.00,WeatherDisplay:10.37,2013-01-26 07:59:00,
2013-01-26 03:02:00,7.3,2.7,29.93,WNW,292,0.0,0.0,81,0.00,CLR,,0.00,WeatherDisplay:10.37,2013-01-26 08:02:00,
2013-01-26 03:03:00,7.3,2.7,29.93,SW,225,0.0,0.0,81,0.00,CLR,,0.00,WeatherDisplay:10.37,2013-01-26 08:03:00,
2013-01-26 03:04:00,7.3,2.7,29.93,SSE,158,0.0,0.0,81,0.00,CLR,,0.00,WeatherDisplay:10.37,2013-01-26 08:04:00,
2013-01-26 03:07:00,7.3,2.7,29.93,NW,315,0.0,0.0,81,0.00,CLR,,0.00,WeatherDisplay:10.37,2013-01-26 08:07:00,
2013-01-26 03:08:00,7.2,2.6,29.93,NW,315,0.0,0.0,81,0.00,CLR,,0.00,WeatherDisplay:10.37,2013-01-26 08:08:00,
2013-01-26 03:09:00,7.2,2.6,29.93,West,270,0.0,0.0,81,0.00,CLR,,0.00,WeatherDisplay:10.37,2013-01-26 08:09:00,
2013-01-26 03:12:00,7.2,2.6,29.93,WNW,292,0.0,0.0,81,0.00,CLR,,0.00,WeatherDisplay:10.37,2013-01-26 08:12:00,
2013-01-26 03:13:00,7.2,2.6,29.93,WNW,292,0.0,0.0,81,0.00,CLR,,0.00,WeatherDisplay:10.37,2013-01-26 08:13:00,
2013-01-26 03:15:00,7.0,2.4,29.93,West,270,2.6,0.0,81,0.00,CLR,,0.00,WeatherDisplay:10.37,2013-01-26 08:15:00,
2013-01-26 03:17:00,7.0,2.4,29.93,NNE,22,0.0,0.0,81,0.00,CLR,,0.00,WeatherDisplay:10.37,2013-01-26 08:17:00,
2013-01-26 03:18:00,7.0,2.4,29.93,West,270,0.0,0.0,81,0.00,CLR,,0.00,WeatherDisplay:10.37,2013-01-26 08:18:00,
2013-01-26 03:20:00,7.2,2.6,29.93,West,270,0.0,0.0,81,0.00,CLR,,0.00,WeatherDisplay:10.37,2013-01-26 08:20:00,
2013-01-26 03:22:00,7.0,2.4,29.93,NNW,338,0.0,0.0,81,0.00,CLR,,0.00,WeatherDisplay:10.37,2013-01-26 08:22:00,
2013-01-26 03:23:00,7.0,2.4,29.95,WNW,292,0.0,0.0,81,0.00,CLR,,0.00,WeatherDisplay:10.37,2013-01-26 08:23:00,
2013-01-26 03:25:00,7.0,2.4,29.95,West,270,3.5,3.5,81,0.00,CLR,,0.00,WeatherDisplay:10.37,2013-01-26 08:25:00,
2013-01-26 03:26:00,7.2,2.6,29.95,WNW,292,4.6,4.6,81,0.00,CLR,,0.00,WeatherDisplay:10.37,2013-01-26 08:26:00,
2013-01-26 03:27:00,7.0,2.4,29.95,West,270,2.3,0.0,81,0.00,CLR,,0.00,WeatherDisplay:10.37,2013-01-26 08:27:00,
2013-01-26 03:28:00,7.0,2.4,29.95,West,270,0.0,0.0,81,0.00,CLR,,0.00,WeatherDisplay:10.37,2013-01-26 08:28:00,
2013-01-26 03:30:00,7.0,2.4,29.95,WNW,292,0.0,0.0,81,0.00,CLR,,0.00,WeatherDisplay:10.37,2013-01-26 08:30:00,
2013-01-26 03:31:00,7.0,2.4,29.95,West,270,2.9,2.9,81,0.00,CLR,,0.00,WeatherDisplay:10.37,2013-01-26 08:31:00,
2013-01-26 03:33:00,7.0,2.4,29.95,WSW,248,4.6,4.6,81,0.00,CLR,,0.00,WeatherDisplay:10.37,2013-01-26 08:33:00,
2013-01-26 03:34:00,7.0,2.4,29.95,NNW,338,0.0,0.0,81,0.00,CLR,,0.00,WeatherDisplay:10.37,2013-01-26 08:34:00,
2013-01-26 03:35:00,7.0,2.4,29.95,West,270,0.0,0.0,81,0.00,CLR,,0.00,WeatherDisplay:10.37,2013-01-26 08:35:00,
2013-01-26 03:36:00,7.0,2.4,29.95,WNW,292,0.0,0.0,81,0.00,CLR,,0.00,WeatherDisplay:10.37,2013-01-26 08:36:00,
2013-01-26 03:38:00,7.0,2.4,29.93,NW,315,0.0,0.0,81,0.00,CLR,,0.00,WeatherDisplay:10.37,2013-01-26 08:38:00,
2013-01-26 03:39:00,7.0,2.4,29.93,WNW,292,0.0,0.0,81,0.00,CLR,,0.00,WeatherDisplay:10.37,2013-01-26 08:39:00,
2013-01-26 03:40:00,7.0,2.4,29.93,WNW,292,0.0,0.0,81,0.00,CLR,,0.00,WeatherDisplay:10.37,2013-01-26 08:40:00,
2013-01-26 03:41:00,7.0,2.4,29.93,West,270,0.0,0.0,81,0.00,CLR,,0.00,WeatherDisplay:10.37,2013-01-26 08:41:00,
2013-01-26 03:43:00,7.0,2.4,29.93,NNW,338,0.0,0.0,81,0.00,CLR,,0.00,WeatherDisplay:10.37,2013-01-26 08:43:00,
2013-01-26 03:44:00,7.0,2.4,29.93,West,270,0.0,0.0,81,0.00,CLR,,0.00,WeatherDisplay:10.37,2013-01-26 08:44:00,
2013-01-26 03:45:00,7.0,2.4,29.93,SSW,202,0.0,0.0,81,0.00,CLR,,0.00,WeatherDisplay:10.37,2013-01-26 08:45:00,
2013-01-26 03:46:00,7.0,2.4,29.93,West,270,0.0,0.0,81,0.00,CLR,,0.00,WeatherDisplay:10.37,2013-01-26 08:46:00,
2013-01-26 03:48:00,7.0,2.4,29.93,WNW,292,0.0,0.0,81,0.00,CLR,,0.00,WeatherDisplay:10.37,2013-01-26 08:48:00,
2013-01-26 03:49:00,7.0,2.4,29.93,WNW,292,0.0,0.0,81,0.00,CLR,,0.00,WeatherDisplay:10.37,2013-01-26 08:49:00,
2013-01-26 03:50:00,7.0,2.4,29.93,WNW,292,0.0,0.0,81,0.00,CLR,,0.00,WeatherDisplay:10.37,2013-01-26 08:50:00,
2013-01-26 03:51:00,7.0,2.4,29.93,West,270,0.0,0.0,81,0.00,CLR,,0.00,WeatherDisplay:10.37,2013-01-26 08:51:00,
2013-01-26 03:53:00,7.0,2.4,29.93,NNW,338,0.0,0.0,81,0.00,CLR,,0.00,WeatherDisplay:10.37,2013-01-26 08:53:00,
2013-01-26 03:54:00,6.8,2.2,29.93,West,270,0.0,0.0,81,0.00,CLR,,0.00,WeatherDisplay:10.37,2013-01-26 08:54:00,
2013-01-26 03:55:00,6.8,2.2,29.93,WNW,292,0.0,0.0,81,0.00,CLR,,0.00,WeatherDisplay:10.37,2013-01-26 08:55:00,
2013-01-26 03:56:00,6.8,2.2,29.93,WSW,248,0.0,0.0,81,0.00,CLR,,0.00,WeatherDisplay:10.37,2013-01-26 08:56:00,
2013-01-26 03:58:00,6.8,2.2,29.93,WNW,292,0.0,0.0,81,0.00,CLR,,0.00,WeatherDisplay:10.37,2013-01-26 08:58:00,
2013-01-26 03:59:00,6.8,2.2,29.93,WNW,292,0.0,0.0,81,0.00,CLR,,0.00,WeatherDisplay:10.37,2013-01-26 08:59:00,
2013-01-26 04:00:00,6.8,2.2,29.93,West,270,0.0,0.0,81,0.00,CLR,,0.00,WeatherDisplay:10.37,2013-01-26 09:00:00,
2013-01-26 04:01:00,6.8,2.2,29.93,WNW,292,0.0,0.0,81,0.00,CLR,,0.00,WeatherDisplay:10.37,2013-01-26 09:01:00,
2013-01-26 04:03:00,7.0,2.4,29.93,West,270,0.0,0.0,81,0.00,CLR,,0.00,WeatherDisplay:10.37,2013-01-26 09:03:00,
2013-01-26 04:04:00,7.0,2.4,29.93,NW,315,0.0,0.0,81,0.00,CLR,,0.00,WeatherDisplay:10.37,2013-01-26 09:04:00,
2013-01-26 04:05:00,7.0,2.4,29.93,North,0,0.0,0.0,81,0.00,CLR,,0.00,WeatherDisplay:10.37,2013-01-26 09:05:00,
2013-01-26 04:06:00,7.0,2.4,29.93,WNW,292,0.0,0.0,81,0.00,CLR,,0.00,WeatherDisplay:10.37,2013-01-26 09:06:00,
2013-01-26 04:08:00,7.0,2.4,29.95,NW,315,0.0,0.0,81,0.00,CLR,,0.00,WeatherDisplay:10.37,2013-01-26 09:08:00,
2013-01-26 04:09:00,7.0,2.4,29.95,WSW,248,0.0,0.0,81,0.00,CLR,,0.00,WeatherDisplay:10.37,2013-01-26 09:09:00,
2013-01-26 04:10:00,7.0,2.4,29.95,West,270,0.0,0.0,81,0.00,CLR,,0.00,WeatherDisplay:10.37,2013-01-26 09:10:00,
2013-01-26 04:11:00,7.0,2.4,29.95,WNW,292,0.0,0.0,81,0.00,CLR,,0.00,WeatherDisplay:10.37,2013-01-26 09:11:00,
2013-01-26 04:14:00,7.0,2.4,29.95,West,270,0.0,0.0,81,0.00,CLR,,0.00,WeatherDisplay:10.37,2013-01-26 09:14:00,
2013-01-26 04:15:00,7.0,2.4,29.95,WNW,292,0.0,0.0,81,0.00,CLR,,0.00,WeatherDisplay:10.37,2013-01-26 09:15:00,
2013-01-26 04:16:00,7.0,2.4,29.95,West,270,0.0,0.0,81,0.00,CLR,,0.00,WeatherDisplay:10.37,2013-01-26 09:16:00,
2013-01-26 04:19:00,7.0,2.4,29.95,NW,315,0.0,0.0,81,0.00,CLR,,0.00,WeatherDisplay:10.37,2013-01-26 09:19:00,
2013-01-26 04:20:00,7.0,2.4,29.95,WSW,248,0.0,0.0,81,0.00,CLR,,0.00,WeatherDisplay:10.37,2013-01-26 09:20:00,
2013-01-26 04:21:00,7.0,2.4,29.95,NW,315,0.0,0.0,81,0.00,CLR,,0.00,WeatherDisplay:10.37,2013-01-26 09:21:00,
2013-01-26 04:24:00,7.0,2.4,29.95,WNW,292,0.0,0.0,81,0.00,CLR,,0.00,WeatherDisplay:10.37,2013-01-26 09:24:00,
2013-01-26 04:25:00,7.0,2.4,29.95,NNW,338,0.0,0.0,81,0.00,CLR,,0.00,WeatherDisplay:10.37,2013-01-26 09:25:00,
2013-01-26 04:26:00,7.0,2.4,29.95,West,270,0.0,0.0,81,0.00,CLR,,0.00,WeatherDisplay:10.37,2013-01-26 09:26:00,
2013-01-26 04:29:00,7.2,2.6,29.95,WNW,292,0.0,0.0,81,0.00,CLR,,0.00,WeatherDisplay:10.37,2013-01-26 09:29:00,
2013-01-26 04:30:00,7.2,2.6,29.95,West,270,0.0,0.0,81,0.00,CLR,,0.00,WeatherDisplay:10.37,2013-01-26 09:30:00,
2013-01-26 04:31:00,7.2,2.6,29.95,West,270,0.0,0.0,81,0.00,CLR,,0.00,WeatherDisplay:10.37,2013-01-26 09:31:00,
2013-01-26 04:32:00,7.2,2.6,29.95,West,270,0.0,0.0,81,0.00,CLR,,0.00,WeatherDisplay:10.37,2013-01-26 09:32:00,
2013-01-26 04:34:00,7.2,2.6,29.95,WNW,292,0.0,0.0,81,0.00,CLR,,0.00,WeatherDisplay:10.37,2013-01-26 09:34:00,
2013-01-26 04:36:00,7.2,2.6,29.95,WNW,292,0.0,0.0,81,0.00,CLR,,0.00,WeatherDisplay:10.37,2013-01-26 09:36:00,
2013-01-26 04:37:00,7.2,2.6,29.95,NNW,338,0.0,0.0,81,0.00,CLR,,0.00,WeatherDisplay:10.37,2013-01-26 09:37:00,
2013-01-26 04:43:00,7.2,2.6,29.99,WNW,292,0.0,0.0,81,0.00,CLR,,0.00,WeatherDisplay:10.37,2013-01-26 09:43:00,
2013-01-26 04:48:00,7.3,2.7,29.99,SW,225,0.0,0.0,81,0.00,CLR,,0.00,WeatherDisplay:10.37,2013-01-26 09:48:00,
2013-01-26 04:53:00,7.5,2.9,29.99,West,270,0.0,0.0,81,0.00,CLR,,0.00,WeatherDisplay:10.37,2013-01-26 09:53:00,
2013-01-26 04:58:00,7.5,2.9,29.99,North,0,0.0,0.0,81,0.00,CLR,,0.00,WeatherDisplay:10.37,2013-01-26 09:58:00,
2013-01-26 05:03:00,7.7,3.1,29.99,West,270,0.0,0.0,81,0.00,CLR,,0.00,WeatherDisplay:10.37,2013-01-26 10:03:00,
2013-01-26 05:04:00,7.7,3.1,29.99,WNW,292,0.0,0.0,81,0.00,CLR,,0.00,WeatherDisplay:10.37,2013-01-26 10:04:00,
2013-01-26 05:08:00,7.7,3.1,29.99,West,270,0.0,0.0,81,0.00,CLR,,0.00,WeatherDisplay:10.37,2013-01-26 10:08:00,
2013-01-26 05:09:00,7.7,3.1,29.99,NNE,22,0.0,0.0,81,0.00,CLR,,0.00,WeatherDisplay:10.37,2013-01-26 10:09:00,
2013-01-26 05:13:00,7.9,3.3,29.99,NE,45,0.0,0.0,81,0.00,CLR,,0.00,WeatherDisplay:10.37,2013-01-26 10:13:00,
2013-01-26 05:14:00,7.9,3.3,29.99,WSW,248,0.0,0.0,81,0.00,CLR,,0.00,WeatherDisplay:10.37,2013-01-26 10:14:00,
2013-01-26 05:18:00,7.9,3.3,29.99,WNW,292,0.0,0.0,81,0.00,CLR,,0.00,WeatherDisplay:10.37,2013-01-26 10:18:00,
2013-01-26 05:19:00,7.9,3.3,29.99,NNE,22,0.0,0.0,81,0.00,CLR,,0.00,WeatherDisplay:10.37,2013-01-26 10:19:00,
2013-01-26 05:24:00,7.9,3.3,29.99,WNW,292,0.0,0.0,81,0.00,CLR,,0.00,WeatherDisplay:10.37,2013-01-26 10:24:00,
2013-01-26 05:25:00,7.9,3.3,29.99,WNW,292,0.0,0.0,81,0.00,CLR,,0.00,WeatherDisplay:10.37,2013-01-26 10:25:00,
2013-01-26 05:29:00,8.1,3.4,29.99,NE,45,0.0,0.0,81,0.00,CLR,,0.00,WeatherDisplay:10.37,2013-01-26 10:29:00,
2013-01-26 05:30:00,8.1,3.4,29.99,West,270,0.0,0.0,81,0.00,CLR,,0.00,WeatherDisplay:10.37,2013-01-26 10:30:00,
2013-01-26 05:34:00,8.1,3.4,29.99,WNW,292,0.0,0.0,81,0.00,CLR,,0.00,WeatherDisplay:10.37,2013-01-26 10:34:00,
2013-01-26 05:35:00,8.1,3.4,29.99,NNW,338,0.0,0.0,81,0.00,CLR,,0.00,WeatherDisplay:10.37,2013-01-26 10:35:00,
2013-01-26 05:39:00,8.2,3.6,29.99,NNE,22,0.0,0.0,81,0.00,CLR,,0.00,WeatherDisplay:10.37,2013-01-26 10:39:00,
2013-01-26 05:40:00,8.2,3.6,29.99,NNE,22,0.0,0.0,81,0.00,CLR,,0.00,WeatherDisplay:10.37,2013-01-26 10:40:00,
2013-01-26 05:44:00,8.4,3.8,29.99,NNW,338,0.0,0.0,81,0.00,CLR,,0.00,WeatherDisplay:10.37,2013-01-26 10:44:00,
2013-01-26 05:45:00,8.4,3.8,29.99,NNW,338,0.0,0.0,81,0.00,CLR,,0.00,WeatherDisplay:10.37,2013-01-26 10:45:00,
2013-01-26 05:49:00,8.4,3.8,29.99,NNE,22,0.0,0.0,81,0.00,CLR,,0.00,WeatherDisplay:10.37,2013-01-26 10:49:00,
2013-01-26 05:50:00,8.4,3.8,29.99,North,0,0.0,0.0,81,0.00,CLR,,0.00,WeatherDisplay:10.37,2013-01-26 10:50:00,
2013-01-26 05:54:00,8.4,3.8,29.99,North,0,0.0,0.0,81,0.00,CLR,,0.00,WeatherDisplay:10.37,2013-01-26 10:54:00,
2013-01-26 05:55:00,8.6,4.0,29.99,NNW,338,0.0,0.0,81,0.00,CLR,,0.00,WeatherDisplay:10.37,2013-01-26 10:55:00,
2013-01-26 05:59:00,8.6,4.0,29.99,West,270,0.0,0.0,81,0.00,CLR,,0.00,WeatherDisplay:10.37,2013-01-26 10:59:00,
2013-01-26 06:00:00,8.6,4.0,29.99,NNW,338,0.0,0.0,81,0.00,CLR,,0.00,WeatherDisplay:10.37,2013-01-26 11:00:00,
2013-01-26 06:01:00,8.6,4.0,29.99,NNW,338,0.0,0.0,81,0.00,CLR,,0.00,WeatherDisplay:10.37,2013-01-26 11:01:00,
2013-01-26 06:04:00,8.8,4.1,29.99,West,270,0.0,0.0,81,0.00,CLR,,0.00,WeatherDisplay:10.37,2013-01-26 11:04:00,
2013-01-26 06:05:00,8.8,4.1,29.99,WNW,292,0.0,0.0,81,0.00,CLR,,0.00,WeatherDisplay:10.37,2013-01-26 11:05:00,
2013-01-26 06:06:00,8.8,4.1,29.99,West,270,0.0,0.0,81,0.00,CLR,,0.00,WeatherDisplay:10.37,2013-01-26 11:06:00,
2013-01-26 06:09:00,8.8,4.1,29.99,WNW,292,0.0,0.0,81,0.00,CLR,,0.00,WeatherDisplay:10.37,2013-01-26 11:09:00,
2013-01-26 06:10:00,8.8,4.1,29.99,NNW,338,0.0,0.0,81,0.00,CLR,,0.00,WeatherDisplay:10.37,2013-01-26 11:10:00,
2013-01-26 06:11:00,8.8,4.1,29.99,NNE,22,0.0,0.0,81,0.00,CLR,,0.00,WeatherDisplay:10.37,2013-01-26 11:11:00,
2013-01-26 06:14:00,9.0,4.3,29.99,NNE,22,0.0,0.0,81,0.00,CLR,,0.00,WeatherDisplay:10.37,2013-01-26 11:14:00,
2013-01-26 06:15:00,9.0,4.3,29.99,ENE,68,0.0,0.0,81,0.00,CLR,,0.00,WeatherDisplay:10.37,2013-01-26 11:15:00,
2013-01-26 06:16:00,9.0,4.3,29.99,WNW,292,0.0,0.0,81,0.00,CLR,,0.00,WeatherDisplay:10.37,2013-01-26 11:16:00,
2013-01-26 06:20:00,9.1,4.5,29.99,NNW,338,0.0,0.0,81,0.00,CLR,,0.00,WeatherDisplay:10.37,2013-01-26 11:20:00,
2013-01-26 06:21:00,9.1,4.5,29.99,WSW,248,0.0,0.0,81,0.00,CLR,,0.00,WeatherDisplay:10.37,2013-01-26 11:21:00,
2013-01-26 06:25:00,9.3,4.7,29.99,ENE,68,0.0,0.0,81,0.00,CLR,,0.00,WeatherDisplay:10.37,2013-01-26 11:25:00,
2013-01-26 06:26:00,9.1,4.5,29.99,West,270,0.0,0.0,81,0.00,CLR,,0.00,WeatherDisplay:10.37,2013-01-26 11:26:00,
2013-01-26 06:30:00,9.1,4.5,29.99,ENE,68,0.0,0.0,81,0.00,CLR,,0.00,WeatherDisplay:10.37,2013-01-26 11:30:00,
2013-01-26 06:31:00,9.3,4.7,29.99,NE,45,0.0,0.0,81,0.00,CLR,,0.00,WeatherDisplay:10.37,2013-01-26 11:31:00,
2013-01-26 06:35:00,9.3,4.7,29.99,West,270,0.0,0.0,81,0.00,CLR,,0.00,WeatherDisplay:10.37,2013-01-26 11:35:00,
2013-01-26 06:36:00,9.3,4.7,29.99,NE,45,0.0,0.0,81,0.00,CLR,,0.00,WeatherDisplay:10.37,2013-01-26 11:36:00,
2013-01-26 06:40:00,9.3,4.7,29.99,NNW,338,0.0,0.0,81,0.00,CLR,,0.00,WeatherDisplay:10.37,2013-01-26 11:40:00,
2013-01-26 06:41:00,9.3,4.7,29.99,NNW,338,0.0,0.0,81,0.00,CLR,,0.00,WeatherDisplay:10.37,2013-01-26 11:41:00,
2013-01-26 06:45:00,9.3,4.7,29.99,South,180,0.0,0.0,81,0.00,CLR,,0.00,WeatherDisplay:10.37,2013-01-26 11:45:00,
2013-01-26 06:46:00,9.3,4.7,29.99,SW,225,0.0,0.0,81,0.00,CLR,,0.00,WeatherDisplay:10.37,2013-01-26 11:46:00,
2013-01-26 06:50:00,9.3,4.7,29.99,NE,45,0.0,0.0,81,0.00,CLR,,0.00,WeatherDisplay:10.37,2013-01-26 11:50:00,
2013-01-26 06:51:00,9.3,4.7,29.99,NE,45,0.0,0.0,81,0.00,CLR,,0.00,WeatherDisplay:10.37,2013-01-26 11:51:00,
2013-01-26 06:52:00,9.3,4.7,29.99,NW,315,0.0,0.0,81,0.00,CLR,,0.00,WeatherDisplay:10.37,2013-01-26 11:52:00,
2013-01-26 06:56:00,9.5,4.8,29.99,NNE,22,0.0,0.0,81,0.00,CLR,,0.00,WeatherDisplay:10.37,2013-01-26 11:56:00,
2013-01-26 06:57:00,9.5,4.8,29.99,WNW,292,0.0,0.0,81,0.00,CLR,,0.00,WeatherDisplay:10.37,2013-01-26 11:57:00,
2013-01-26 07:01:00,9.5,4.8,29.99,West,270,0.0,0.0,81,0.00,CLR,,0.00,WeatherDisplay:10.37,2013-01-26 12:01:00,
2013-01-26 07:02:00,9.5,4.8,29.99,NW,315,0.0,0.0,81,0.00,CLR,,0.00,WeatherDisplay:10.37,2013-01-26 12:02:00,
2013-01-26 07:06:00,9.5,4.8,29.99,NNE,22,0.0,0.0,81,0.00,CLR,,0.00,WeatherDisplay:10.37,2013-01-26 12:06:00,
2013-01-26 07:07:00,9.5,4.8,29.99,NNE,22,0.0,0.0,81,0.00,CLR,,0.00,WeatherDisplay:10.37,2013-01-26 12:07:00,
2013-01-26 07:11:00,9.7,5.0,30.01,NE,45,0.0,0.0,81,0.00,CLR,,0.00,WeatherDisplay:10.37,2013-01-26 12:11:00,
2013-01-26 07:12:00,9.7,5.0,30.01,NNW,338,0.0,0.0,81,0.00,CLR,,0.00,WeatherDisplay:10.37,2013-01-26 12:12:00,
2013-01-26 07:16:00,9.7,5.0,30.01,NNW,338,0.0,0.0,81,0.00,CLR,,0.00,WeatherDisplay:10.37,2013-01-26 12:16:00,
2013-01-26 07:17:00,10.0,5.4,30.01,NNE,22,0.0,0.0,81,0.00,CLR,,0.00,WeatherDisplay:10.37,2013-01-26 12:17:00,
2013-01-26 07:21:00,10.0,5.4,30.01,WNW,292,0.0,0.0,81,0.00,CLR,,0.00,WeatherDisplay:10.37,2013-01-26 12:21:00,
2013-01-26 07:22:00,10.0,5.4,30.01,North,0,0.0,0.0,81,0.00,CLR,,0.00,WeatherDisplay:10.37,2013-01-26 12:22:00,
2013-01-26 07:26:00,10.0,5.4,29.99,WNW,292,0.0,0.0,81,0.00,CLR,,0.00,WeatherDisplay:10.37,2013-01-26 12:26:00,
2013-01-26 07:27:00,10.0,5.4,29.99,WNW,292,0.0,0.0,81,0.00,CLR,,0.00,WeatherDisplay:10.37,2013-01-26 12:27:00,
2013-01-26 07:31:00,10.2,5.5,29.99,NW,315,0.0,0.0,81,0.00,CLR,,0.00,WeatherDisplay:10.37,2013-01-26 12:31:00,
2013-01-26 07:32:00,10.2,5.5,29.99,NW,315,0.0,0.0,81,0.00,CLR,,0.00,WeatherDisplay:10.37,2013-01-26 12:32:00,
2013-01-26 07:33:00,10.2,5.5,29.99,SW,225,0.0,0.0,81,0.00,CLR,,0.00,WeatherDisplay:10.37,2013-01-26 12:33:00,
2013-01-26 07:36:00,10.2,5.5,29.99,West,270,0.0,0.0,81,0.00,CLR,,0.00,WeatherDisplay:10.37,2013-01-26 12:36:00,
2013-01-26 07:37:00,10.2,5.5,29.99,WNW,292,0.0,0.0,81,0.00,CLR,,0.00,WeatherDisplay:10.37,2013-01-26 12:37:00,
2013-01-26 07:38:00,10.2,5.5,29.99,WNW,292,0.0,0.0,81,0.00,CLR,,0.00,WeatherDisplay:10.37,2013-01-26 12:38:00,
2013-01-26 07:42:00,10.4,5.7,29.99,WNW,292,2.3,0.0,81,0.00,CLR,,0.00,WeatherDisplay:10.37,2013-01-26 12:42:00,
2013-01-26 07:43:00,10.4,5.7,29.99,West,270,0.0,0.0,81,0.00,CLR,,0.00,WeatherDisplay:10.37,2013-01-26 12:43:00,
2013-01-26 07:44:00,10.4,5.7,29.99,NNE,22,0.0,0.0,81,0.00,CLR,,0.00,WeatherDisplay:10.37,2013-01-26 12:44:00,
2013-01-26 07:47:00,10.4,5.7,29.99,WNW,292,0.0,0.0,81,0.00,CLR,,0.00,WeatherDisplay:10.37,2013-01-26 12:47:00,
2013-01-26 07:48:00,10.4,5.7,29.99,North,0,0.0,0.0,81,0.00,CLR,,0.00,WeatherDisplay:10.37,2013-01-26 12:48:00,
2013-01-26 07:49:00,10.6,5.9,29.99,SW,225,0.0,0.0,81,0.00,CLR,,0.00,WeatherDisplay:10.37,2013-01-26 12:49:00,
2013-01-26 07:52:00,10.8,6.1,29.99,NNE,22,0.0,0.0,81,0.00,CLR,,0.00,WeatherDisplay:10.37,2013-01-26 12:52:00,
2013-01-26 07:53:00,10.8,6.1,30.01,NNE,22,0.0,0.0,81,0.00,CLR,,0.00,WeatherDisplay:10.37,2013-01-26 12:53:00,
2013-01-26 07:54:00,10.8,6.1,30.01,West,270,0.0,0.0,81,0.00,CLR,,0.00,WeatherDisplay:10.37,2013-01-26 12:54:00,
2013-01-26 07:57:00,10.8,6.1,30.01,WSW,248,0.0,0.0,81,0.00,CLR,,0.00,WeatherDisplay:10.37,2013-01-26 12:57:00,
2013-01-26 07:58:00,10.8,6.1,30.01,West,270,3.3,0.0,81,0.00,CLR,,0.00,WeatherDisplay:10.37,2013-01-26 12:58:00,
2013-01-26 07:59:00,10.8,6.1,30.01,NE,45,4.6,4.6,81,0.00,CLR,,0.00,WeatherDisplay:10.37,2013-01-26 12:59:00,
2013-01-26 08:03:00,10.9,6.3,30.01,West,270,3.5,3.5,81,0.00,CLR,,0.00,WeatherDisplay:10.37,2013-01-26 13:03:00,
2013-01-26 08:04:00,10.9,6.3,30.01,NW,315,3.5,3.5,81,0.00,CLR,,0.00,WeatherDisplay:10.37,2013-01-26 13:04:00,
2013-01-26 08:08:00,11.3,6.6,30.01,West,270,0.0,0.0,81,0.00,CLR,,0.00,WeatherDisplay:10.37,2013-01-26 13:08:00,
2013-01-26 08:09:00,11.3,6.6,30.01,NW,315,0.0,0.0,81,0.00,CLR,,0.00,WeatherDisplay:10.37,2013-01-26 13:09:00,
2013-01-26 08:13:00,11.7,7.0,30.01,NNW,338,0.0,0.0,81,0.00,CLR,,0.00,WeatherDisplay:10.37,2013-01-26 13:13:00,
2013-01-26 08:14:00,11.8,7.1,30.01,NE,45,0.0,0.0,81,0.00,CLR,,0.00,WeatherDisplay:10.37,2013-01-26 13:14:00,
2013-01-26 08:15:00,11.8,7.1,30.01,NE,45,0.0,0.0,81,0.00,CLR,,0.00,WeatherDisplay:10.37,2013-01-26 13:15:00,
2013-01-26 08:18:00,12.2,7.5,30.01,North,0,0.0,0.0,81,0.00,CLR,,0.00,WeatherDisplay:10.37,2013-01-26 13:18:00,
2013-01-26 08:19:00,12.2,7.5,30.01,North,0,0.0,0.0,81,0.00,CLR,,0.00,WeatherDisplay:10.37,2013-01-26 13:19:00,
2013-01-26 08:20:00,12.2,7.5,30.01,North,0,0.0,0.0,81,0.00,CLR,,0.00,WeatherDisplay:10.37,2013-01-26 13:20:00,
2013-01-26 08:23:00,12.6,7.8,30.01,WNW,292,0.0,0.0,81,0.00,CLR,,0.00,WeatherDisplay:10.37,2013-01-26 13:23:00,
2013-01-26 08:24:00,12.6,7.8,30.01,West,270,0.0,0.0,81,0.00,CLR,,0.00,WeatherDisplay:10.37,2013-01-26 13:24:00,
2013-01-26 08:25:00,12.6,7.8,30.01,WNW,292,0.0,0.0,81,0.00,CLR,,0.00,WeatherDisplay:10.37,2013-01-26 13:25:00,
2013-01-26 08:28:00,12.7,8.0,30.01,NNE,22,0.0,0.0,81,0.00,CLR,,0.00,WeatherDisplay:10.37,2013-01-26 13:28:00,
2013-01-26 08:29:00,12.7,8.0,30.01,NNE,22,0.0,0.0,81,0.00,CLR,,0.00,WeatherDisplay:10.37,2013-01-26 13:29:00,
2013-01-26 08:30:00,12.7,8.0,30.01,WNW,292,0.0,0.0,81,0.00,CLR,,0.00,WeatherDisplay:10.37,2013-01-26 13:30:00,
2013-01-26 08:33:00,12.9,8.2,30.01,SSE,158,0.0,0.0,81,0.00,CLR,,0.00,WeatherDisplay:10.37,2013-01-26 13:33:00,
2013-01-26 08:34:00,12.9,8.2,30.01,West,270,0.0,0.0,81,0.00,CLR,,0.00,WeatherDisplay:10.37,2013-01-26 13:34:00,
2013-01-26 08:35:00,12.7,8.0,30.01,WNW,292,0.0,0.0,81,0.00,CLR,,0.00,WeatherDisplay:10.37,2013-01-26 13:35:00,
2013-01-26 08:38:00,12.7,8.0,30.04,West,270,2.3,2.3,81,0.00,CLR,,0.00,WeatherDisplay:10.37,2013-01-26 13:38:00,
2013-01-26 08:39:00,12.7,8.0,30.04,WSW,248,2.3,0.0,81,0.00,CLR,,0.00,WeatherDisplay:10.37,2013-01-26 13:39:00,
2013-01-26 08:40:00,12.7,8.0,30.04,WNW,292,2.3,0.0,81,0.00,CLR,,0.00,WeatherDisplay:10.37,2013-01-26 13:40:00,
2013-01-26 08:43:00,12.9,8.2,30.04,NNW,338,2.3,0.0,81,0.00,CLR,,0.00,WeatherDisplay:10.37,2013-01-26 13:43:00,
2013-01-26 08:44:00,12.9,8.2,30.04,WSW,248,0.0,0.0,81,0.00,CLR,,0.00,WeatherDisplay:10.37,2013-01-26 13:44:00,
2013-01-26 08:45:00,13.1,8.4,30.04,WSW,248,0.0,0.0,81,0.00,CLR,,0.00,WeatherDisplay:10.37,2013-01-26 13:45:00,
2013-01-26 08:48:00,13.5,8.7,30.04,NNE,22,0.0,0.0,81,0.00,CLR,,0.00,WeatherDisplay:10.37,2013-01-26 13:48:00,
2013-01-26 08:49:00,13.6,8.9,30.04,NNE,22,0.0,0.0,81,0.00,CLR,,0.00,WeatherDisplay:10.37,2013-01-26 13:49:00,
2013-01-26 08:50:00,13.6,8.9,30.04,NNE,22,0.0,0.0,81,0.00,CLR,,0.00,WeatherDisplay:10.37,2013-01-26 13:50:00,
2013-01-26 08:53:00,13.8,9.1,30.04,North,0,0.0,0.0,81,0.00,CLR,,0.00,WeatherDisplay:10.37,2013-01-26 13:53:00,
2013-01-26 08:55:00,14.0,9.2,30.04,SSW,202,0.0,0.0,81,0.00,CLR,,0.00,WeatherDisplay:10.37,2013-01-26 13:55:00,
2013-01-26 08:58:00,14.5,9.5,30.04,SSW,202,0.0,0.0,80,0.00,CLR,,0.00,WeatherDisplay:10.37,2013-01-26 13:58:00,
2013-01-26 09:00:00,14.7,9.7,30.04,SSW,202,0.0,0.0,80,0.00,CLR,,0.00,WeatherDisplay:10.37,2013-01-26 14:00:00,
2013-01-26 09:03:00,14.9,9.8,30.04,WNW,292,0.0,0.0,80,0.00,CLR,,0.00,WeatherDisplay:10.37,2013-01-26 14:03:00,
2013-01-26 09:05:00,14.9,9.8,30.04,NNE,22,0.0,0.0,80,0.00,CLR,,0.00,WeatherDisplay:10.37,2013-01-26 14:05:00,
2013-01-26 09:09:00,15.3,10.2,30.04,West,270,1.1,0.0,80,0.00,CLR,,0.00,WeatherDisplay:10.37,2013-01-26 14:09:00,
2013-01-26 09:10:00,15.3,10.2,30.04,NW,315,0.0,0.0,80,0.00,CLR,,0.00,WeatherDisplay:10.37,2013-01-26 14:10:00,
2013-01-26 09:14:00,16.0,10.6,30.04,NE,45,0.0,0.0,79,0.00,CLR,,0.00,WeatherDisplay:10.37,2013-01-26 14:14:00,
2013-01-26 09:15:00,16.0,10.6,30.04,NNE,22,0.0,0.0,79,0.00,CLR,,0.00,WeatherDisplay:10.37,2013-01-26 14:15:00,
2013-01-26 09:19:00,16.2,10.8,30.04,WSW,248,0.0,0.0,79,0.00,CLR,,0.00,WeatherDisplay:10.37,2013-01-26 14:19:00,
2013-01-26 09:20:00,16.3,10.7,30.04,WNW,292,0.0,0.0,78,0.00,CLR,,0.00,WeatherDisplay:10.37,2013-01-26 14:20:00,
2013-01-26 09:21:00,16.2,10.5,30.04,North,0,0.0,0.0,78,0.00,CLR,,0.00,WeatherDisplay:10.37,2013-01-26 14:21:00,
2013-01-26 09:24:00,16.3,10.7,30.01,WSW,248,0.0,1.1,78,0.00,CLR,,0.00,WeatherDisplay:10.37,2013-01-26 14:24:00,
2013-01-26 09:25:00,16.5,10.6,30.01,WNW,292,0.0,0.0,77,0.00,CLR,,0.00,WeatherDisplay:10.37,2013-01-26 14:25:00,
2013-01-26 09:26:00,16.5,10.6,30.01,WNW,292,0.0,0.0,77,0.00,CLR,,0.00,WeatherDisplay:10.37,2013-01-26 14:26:00,
2013-01-26 09:29:00,16.9,10.6,30.01,North,0,1.1,0.0,76,0.00,CLR,,0.00,WeatherDisplay:10.37,2013-01-26 14:29:00,
2013-01-26 09:31:00,17.1,10.8,30.01,NNE,22,0.0,0.0,76,0.00,CLR,,0.00,WeatherDisplay:10.37,2013-01-26 14:31:00,
2013-01-26 09:32:00,17.2,11.0,30.01,East,90,0.0,0.0,76,0.00,CLR,,0.00,WeatherDisplay:10.37,2013-01-26 14:32:00,
2013-01-26 09:34:00,16.9,10.6,30.01,WNW,292,3.5,3.5,76,0.00,CLR,,0.00,WeatherDisplay:10.37,2013-01-26 14:34:00,
2013-01-26 09:36:00,16.9,10.3,30.01,WNW,292,3.5,3.5,75,0.00,CLR,,0.00,WeatherDisplay:10.37,2013-01-26 14:36:00,
2013-01-26 09:37:00,16.9,10.0,30.01,West,270,2.3,2.3,74,0.00,CLR,,0.00,WeatherDisplay:10.37,2013-01-26 14:37:00,
2013-01-26 09:39:00,17.1,10.2,30.01,WNW,292,0.0,0.0,74,0.00,CLR,,0.00,WeatherDisplay:10.37,2013-01-26 14:39:00,
2013-01-26 09:41:00,17.1,10.2,30.01,NNW,338,0.0,0.0,74,0.00,CLR,,0.00,WeatherDisplay:10.37,2013-01-26 14:41:00,
2013-01-26 09:42:00,17.2,10.4,30.01,WSW,248,0.0,0.0,74,0.00,CLR,,0.00,WeatherDisplay:10.37,2013-01-26 14:42:00,
2013-01-26 09:44:00,17.6,10.7,30.01,WNW,292,0.0,0.0,74,0.00,CLR,,0.00,WeatherDisplay:10.37,2013-01-26 14:44:00,
2013-01-26 09:46:00,17.6,10.7,30.01,WNW,292,0.0,0.0,74,0.00,CLR,,0.00,WeatherDisplay:10.37,2013-01-26 14:46:00,
2013-01-26 09:47:00,17.8,10.6,30.01,WNW,292,0.0,0.0,73,0.00,CLR,,0.00,WeatherDisplay:10.37,2013-01-26 14:47:00,
2013-01-26 09:50:00,17.8,10.6,30.01,WSW,248,0.0,0.0,73,0.00,CLR,,0.00,WeatherDisplay:10.37,2013-01-26 14:50:00,
2013-01-26 09:51:00,18.0,10.8,30.01,NNW,338,0.0,0.0,73,0.00,CLR,,0.00,WeatherDisplay:10.37,2013-01-26 14:51:00,
2013-01-26 09:52:00,18.1,10.9,30.01,NW,315,4.3,0.0,73,0.00,CLR,,0.00,WeatherDisplay:10.37,2013-01-26 14:52:00,
2013-01-26 09:55:00,18.5,11.0,30.04,NNE,22,0.0,0.0,72,0.00,CLR,,0.00,WeatherDisplay:10.37,2013-01-26 14:55:00,
2013-01-26 09:56:00,18.7,11.1,30.04,NNE,22,0.0,0.0,72,0.00,CLR,,0.00,WeatherDisplay:10.37,2013-01-26 14:56:00,
2013-01-26 09:57:00,18.7,10.8,30.04,WNW,292,2.3,2.3,71,0.00,CLR,,0.00,WeatherDisplay:10.37,2013-01-26 14:57:00,
2013-01-26 10:00:00,18.9,10.7,30.04,NNW,338,2.3,2.3,70,0.00,CLR,,0.00,WeatherDisplay:10.37,2013-01-26 15:00:00,
2013-01-26 10:01:00,18.9,10.7,30.04,NNE,22,2.3,2.3,70,0.00,CLR,,0.00,WeatherDisplay:10.37,2013-01-26 15:01:00,
2013-01-26 10:02:00,19.0,10.5,30.04,NNE,22,1.1,0.0,69,0.00,CLR,,0.00,WeatherDisplay:10.37,2013-01-26 15:02:00,
2013-01-26 10:05:00,18.5,9.4,30.04,WNW,292,3.5,3.5,67,0.00,CLR,,0.00,WeatherDisplay:10.37,2013-01-26 15:05:00,
2013-01-26 10:06:00,18.9,9.7,30.04,NNW,338,3.5,3.5,67,0.00,CLR,,0.00,WeatherDisplay:10.37,2013-01-26 15:06:00,
2013-01-26 10:08:00,19.0,9.9,30.04,NW,315,2.3,0.0,67,0.00,CLR,,0.00,WeatherDisplay:10.37,2013-01-26 15:08:00,
2013-01-26 10:10:00,19.0,9.9,30.04,WNW,292,1.1,0.0,67,0.00,CLR,,0.00,WeatherDisplay:10.37,2013-01-26 15:10:00,
2013-01-26 10:11:00,18.7,9.2,30.04,West,270,4.6,0.0,66,0.00,CLR,,0.00,WeatherDisplay:10.37,2013-01-26 15:11:00,
2013-01-26 10:13:00,18.7,8.9,30.04,WNW,292,4.6,4.6,65,0.00,CLR,,0.00,WeatherDisplay:10.37,2013-01-26 15:13:00,
2013-01-26 10:15:00,18.7,8.9,30.04,WSW,248,4.6,4.6,65,0.00,CLR,,0.00,WeatherDisplay:10.37,2013-01-26 15:15:00,
2013-01-26 10:16:00,18.7,8.9,30.04,WNW,292,4.6,4.6,65,0.00,CLR,,0.00,WeatherDisplay:10.37,2013-01-26 15:16:00,
2013-01-26 10:18:00,18.9,8.7,30.04,WNW,292,3.5,3.5,64,0.00,CLR,,0.00,WeatherDisplay:10.37,2013-01-26 15:18:00,
2013-01-26 10:20:00,19.0,8.9,30.04,NW,315,2.3,0.0,64,0.00,CLR,,0.00,WeatherDisplay:10.37,2013-01-26 15:20:00,
2013-01-26 10:21:00,19.2,9.0,30.04,West,270,3.6,3.6,64,0.00,CLR,,0.00,WeatherDisplay:10.37,2013-01-26 15:21:00,
2013-01-26 10:22:00,19.4,9.5,30.04,WSW,248,2.3,2.3,65,0.00,CLR,,0.00,WeatherDisplay:10.37,2013-01-26 15:22:00,
2013-01-26 10:23:00,19.6,9.4,30.04,NNW,338,3.1,3.1,64,0.00,CLR,,0.00,WeatherDisplay:10.37,2013-01-26 15:23:00,
2013-01-26 10:25:00,20.1,9.5,30.04,WNW,292,4.6,4.6,63,0.00,CLR,,0.00,WeatherDisplay:10.37,2013-01-26 15:25:00,
2013-01-26 10:27:00,20.1,9.5,30.04,WNW,292,3.5,3.5,63,0.00,CLR,,0.00,WeatherDisplay:10.37,2013-01-26 15:27:00,
2013-01-26 10:28:00,20.3,9.0,30.04,WNW,292,4.6,4.6,61,0.00,CLR,,0.00,WeatherDisplay:10.37,2013-01-26 15:28:00,
2013-01-26 10:31:00,20.5,8.8,30.04,West,270,4.6,4.6,60,0.00,CLR,,0.00,WeatherDisplay:10.37,2013-01-26 15:31:00,
2013-01-26 10:32:00,20.8,9.1,30.04,WNW,292,4.6,4.6,60,0.00,CLR,,0.00,WeatherDisplay:10.37,2013-01-26 15:32:00,
2013-01-26 10:33:00,21.0,9.3,30.04,North,0,5.8,5.8,60,0.00,CLR,,0.00,WeatherDisplay:10.37,2013-01-26 15:33:00,
2013-01-26 10:36:00,21.2,9.1,30.04,West,270,0.0,0.0,59,0.00,CLR,,0.00,WeatherDisplay:10.37,2013-01-26 15:36:00,
2013-01-26 10:37:00,21.2,9.1,30.04,West,270,0.0,0.0,59,0.00,CLR,,0.00,WeatherDisplay:10.37,2013-01-26 15:37:00,
2013-01-26 10:38:00,21.2,8.3,30.01,WNW,292,4.0,4.0,57,0.00,CLR,,0.00,WeatherDisplay:10.37,2013-01-26 15:38:00,
2013-01-26 10:41:00,21.0,7.8,30.01,WSW,248,5.8,5.8,56,0.00,CLR,,0.00,WeatherDisplay:10.37,2013-01-26 15:41:00,
2013-01-26 10:42:00,21.2,7.9,30.01,NNW,338,4.6,4.6,56,0.00,CLR,,0.00,WeatherDisplay:10.37,2013-01-26 15:42:00,
2013-01-26 10:44:00,21.2,7.9,30.01,West,270,5.6,5.6,56,0.00,CLR,,0.00,WeatherDisplay:10.37,2013-01-26 15:44:00,
2013-01-26 10:47:00,21.4,7.7,30.01,WSW,248,4.6,4.6,55,0.00,CLR,,0.00,WeatherDisplay:10.37,2013-01-26 15:47:00,
2013-01-26 10:48:00,21.6,8.3,30.01,West,270,4.9,4.9,56,0.00,CLR,,0.00,WeatherDisplay:10.37,2013-01-26 15:48:00,
2013-01-26 10:49:00,21.4,7.7,30.01,West,270,6.0,6.0,55,0.00,CLR,,0.00,WeatherDisplay:10.37,2013-01-26 15:49:00,
2013-01-26 10:52:00,21.7,7.6,30.01,West,270,2.3,2.4,54,0.00,CLR,,0.00,WeatherDisplay:10.37,2013-01-26 15:52:00,
2013-01-26 10:53:00,21.7,7.6,30.04,WNW,292,4.6,4.6,54,0.00,CLR,,0.00,WeatherDisplay:10.37,2013-01-26 15:53:00,
2013-01-26 10:54:00,21.7,7.6,30.04,West,270,4.6,4.6,54,0.00,CLR,,0.00,WeatherDisplay:10.37,2013-01-26 15:54:00,
2013-01-26 10:57:00,22.5,8.3,30.04,WSW,248,5.8,0.0,54,0.00,CLR,,0.00,WeatherDisplay:10.37,2013-01-26 15:57:00,
2013-01-26 10:58:00,22.8,8.6,30.04,WNW,292,3.5,3.5,54,0.00,CLR,,0.00,WeatherDisplay:10.37,2013-01-26 15:58:00,
2013-01-26 10:59:00,23.0,8.8,30.04,WNW,292,3.5,3.5,54,0.00,CLR,,0.00,WeatherDisplay:10.37,2013-01-26 15:59:00,
2013-01-26 11:02:00,22.6,7.6,30.04,West,270,5.8,5.8,52,0.00,CLR,,0.00,WeatherDisplay:10.37,2013-01-26 16:02:00,
2013-01-26 11:03:00,23.0,8.0,30.04,WNW,292,5.8,5.8,52,0.00,CLR,,0.00,WeatherDisplay:10.37,2013-01-26 16:03:00,
2013-01-26 11:04:00,23.2,8.1,30.04,WSW,248,4.6,4.6,52,0.00,CLR,,0.00,WeatherDisplay:10.37,2013-01-26 16:04:00,
2013-01-26 11:07:00,23.7,9.1,30.04,WSW,248,4.3,4.3,53,0.00,CLR,,0.00,WeatherDisplay:10.37,2013-01-26 16:07:00,
2013-01-26 11:09:00,23.9,8.8,30.04,NNW,338,4.6,4.6,52,0.00,CLR,,0.00,WeatherDisplay:10.37,2013-01-26 16:09:00,
2013-01-26 11:10:00,23.9,8.8,30.04,NW,315,2.3,2.3,52,0.00,CLR,,0.00,WeatherDisplay:10.37,2013-01-26 16:10:00,
2013-01-26 11:12:00,24.1,7.7,30.04,SW,225,5.8,5.8,49,0.00,CLR,,0.00,WeatherDisplay:10.37,2013-01-26 16:12:00,
2013-01-26 11:14:00,24.4,8.0,30.04,SSW,202,4.6,4.6,49,0.00,CLR,,0.00,WeatherDisplay:10.37,2013-01-26 16:14:00,
2013-01-26 11:15:00,24.6,8.2,30.04,WNW,292,1.6,1.6,49,0.00,CLR,,0.00,WeatherDisplay:10.37,2013-01-26 16:15:00,
2013-01-26 11:17:00,24.6,7.2,30.04,West,270,3.6,3.6,47,0.00,CLR,,0.00,WeatherDisplay:10.37,2013-01-26 16:17:00,
2013-01-26 11:19:00,25.3,7.4,30.04,WSW,248,4.6,4.6,46,0.00,CLR,,0.00,WeatherDisplay:10.37,2013-01-26 16:19:00,
2013-01-26 11:20:00,25.3,7.4,30.04,West,270,4.6,4.6,46,0.00,CLR,,0.00,WeatherDisplay:10.37,2013-01-26 16:20:00,
2013-01-26 11:22:00,25.9,7.9,30.04,West,270,0.0,0.0,46,0.00,CLR,,0.00,WeatherDisplay:10.37,2013-01-26 16:22:00,
2013-01-26 11:24:00,26.2,8.2,30.01,WNW,292,0.0,0.0,46,0.00,CLR,,0.00,WeatherDisplay:10.37,2013-01-26 16:24:00,
2013-01-26 11:25:00,26.4,7.9,30.01,WNW,292,0.0,0.0,45,0.00,CLR,,0.00,WeatherDisplay:10.37,2013-01-26 16:25:00,
2013-01-26 11:27:00,27.1,8.6,30.01,ENE,68,0.0,0.0,45,0.00,CLR,,0.00,WeatherDisplay:10.37,2013-01-26 16:27:00,
2013-01-26 11:29:00,27.3,8.7,30.01,North,0,3.5,0.0,45,0.00,CLR,,0.00,WeatherDisplay:10.37,2013-01-26 16:29:00,
2013-01-26 11:30:00,27.7,9.1,30.01,SSW,202,3.5,0.0,45,0.00,CLR,,0.00,WeatherDisplay:10.37,2013-01-26 16:30:00,
2013-01-26 11:32:00,28.2,9.6,30.01,NNW,338,1.6,0.0,45,0.00,CLR,,0.00,WeatherDisplay:10.37,2013-01-26 16:32:00,
2013-01-26 11:33:00,28.2,9.6,30.01,NNW,338,1.6,0.0,45,0.00,CLR,,0.00,WeatherDisplay:10.37,2013-01-26 16:33:00,
2013-01-26 11:34:00,28.0,8.4,30.01,West,270,3.5,3.5,43,0.00,CLR,,0.00,WeatherDisplay:10.37,2013-01-26 16:34:00,
2013-01-26 11:35:00,28.0,8.4,30.01,West,270,4.6,4.6,43,0.00,CLR,,0.00,WeatherDisplay:10.37,2013-01-26 16:35:00,
2013-01-26 11:38:00,27.9,7.7,30.04,North,0,3.6,3.6,42,0.00,CLR,,0.00,WeatherDisplay:10.37,2013-01-26 16:38:00,
2013-01-26 11:39:00,27.9,7.2,30.04,North,0,3.8,3.8,41,0.00,CLR,,0.00,WeatherDisplay:10.37,2013-01-26 16:39:00,
2013-01-26 11:40:00,28.0,7.3,30.04,NNE,22,4.6,0.0,41,0.00,CLR,,0.00,WeatherDisplay:10.37,2013-01-26 16:40:00,
2013-01-26 11:43:00,28.6,7.8,30.04,NW,315,4.6,4.6,41,0.00,CLR,,0.00,WeatherDisplay:10.37,2013-01-26 16:43:00,
2013-01-26 11:44:00,29.1,8.3,30.04,West,270,2.4,2.4,41,0.00,CLR,,0.00,WeatherDisplay:10.37,2013-01-26 16:44:00,
2013-01-26 11:45:00,28.9,8.1,30.04,WNW,292,6.9,6.9,41,0.00,CLR,,0.00,WeatherDisplay:10.37,2013-01-26 16:45:00,
2013-01-26 11:48:00,30.0,9.1,30.04,West,270,3.5,0.0,41,0.00,CLR,,0.00,WeatherDisplay:10.37,2013-01-26 16:48:00,
2013-01-26 11:50:00,30.9,9.4,30.04,NNW,338,4.0,4.0,40,0.00,CLR,,0.00,WeatherDisplay:10.37,2013-01-26 16:50:00,
2013-01-26 11:53:00,30.2,8.2,30.04,WNW,292,0.0,0.0,39,0.00,CLR,,0.00,WeatherDisplay:10.37,2013-01-26 16:53:00,
2013-01-26 11:55:00,31.1,9.6,30.04,WNW,292,5.8,5.8,40,0.00,CLR,,0.00,WeatherDisplay:10.37,2013-01-26 16:55:00,
2013-01-26 11:58:00,29.5,7.0,30.04,WNW,292,4.3,4.3,38,0.00,CLR,,0.00,WeatherDisplay:10.37,2013-01-26 16:58:00,
2013-01-26 12:00:00,30.0,6.9,30.04,SSE,158,2.3,2.3,37,0.00,CLR,,0.00,WeatherDisplay:10.37,2013-01-26 17:00:00,
2013-01-26 12:01:00,30.2,8.2,30.04,ESE,112,0.9,0.0,39,0.00,CLR,,0.00,WeatherDisplay:10.37,2013-01-26 17:01:00,
2013-01-26 12:03:00,30.9,8.2,30.04,North,0,3.5,0.0,38,0.00,CLR,,0.00,WeatherDisplay:10.37,2013-01-26 17:03:00,
2013-01-26 12:05:00,31.6,8.9,30.04,North,0,0.0,0.0,38,0.00,CLR,,0.00,WeatherDisplay:10.37,2013-01-26 17:05:00,
2013-01-26 12:06:00,31.8,9.1,30.04,WNW,292,0.0,0.0,38,0.00,CLR,,0.00,WeatherDisplay:10.37,2013-01-26 17:06:00,
2013-01-26 12:08:00,32.0,8.0,30.04,NNE,22,3.5,3.5,36,0.00,CLR,,0.00,WeatherDisplay:10.37,2013-01-26 17:08:00,
2013-01-26 12:09:00,32.0,8.0,30.04,WNW,292,3.5,3.5,36,0.00,CLR,,0.00,WeatherDisplay:10.37,2013-01-26 17:09:00,
2013-01-26 12:10:00,32.0,8.0,30.04,NNW,338,1.1,0.0,36,0.00,CLR,,0.00,WeatherDisplay:10.37,2013-01-26 17:10:00,
2013-01-26 12:11:00,32.2,8.2,30.04,NNE,22,2.3,2.3,36,0.00,CLR,,0.00,WeatherDisplay:10.37,2013-01-26 17:11:00,
2013-01-26 12:13:00,32.7,8.7,30.04,NW,315,2.3,2.3,36,0.00,CLR,,0.00,WeatherDisplay:10.37,2013-01-26 17:13:00,
2013-01-26 12:14:00,33.1,9.0,30.04,West,270,2.3,2.3,36,0.00,CLR,,0.00,WeatherDisplay:10.37,2013-01-26 17:14:00,
2013-01-26 12:15:00,33.6,9.5,30.04,WNW,292,1.4,1.6,36,0.00,CLR,,0.00,WeatherDisplay:10.37,2013-01-26 17:15:00,
2013-01-26 12:17:00,33.8,9.0,30.04,NNW,338,3.5,3.5,35,0.00,CLR,,0.00,WeatherDisplay:10.37,2013-01-26 17:17:00,
2013-01-26 12:18:00,33.6,8.2,30.04,North,0,3.5,3.5,34,0.00,CLR,,0.00,WeatherDisplay:10.37,2013-01-26 17:18:00,
2013-01-26 12:19:00,33.6,8.2,30.04,NNW,338,1.1,1.1,34,0.00,CLR,,0.00,WeatherDisplay:10.37,2013-01-26 17:19:00,
2013-01-26 12:20:00,33.3,7.9,30.04,NW,315,4.6,4.6,34,0.00,CLR,,0.00,WeatherDisplay:10.37,2013-01-26 17:20:00,
2013-01-26 12:22:00,33.6,7.5,30.04,ENE,68,2.3,2.3,33,0.00,CLR,,0.00,WeatherDisplay:10.37,2013-01-26 17:22:00,
2013-01-26 12:24:00,32.2,6.3,30.04,NW,315,5.8,5.8,33,0.00,CLR,,0.00,WeatherDisplay:10.37,2013-01-26 17:24:00,
2013-01-26 12:25:00,31.8,5.9,30.04,WSW,248,3.5,3.5,33,0.00,CLR,,0.00,WeatherDisplay:10.37,2013-01-26 17:25:00,
2013-01-26 12:28:00,32.0,6.1,30.04,NNW,338,2.3,2.3,33,0.00,CLR,,0.00,WeatherDisplay:10.37,2013-01-26 17:28:00,
2013-01-26 12:29:00,32.5,7.2,30.04,NNW,338,2.3,2.3,34,0.00,CLR,,0.00,WeatherDisplay:10.37,2013-01-26 17:29:00,
2013-01-26 12:30:00,32.5,6.6,30.04,NNW,338,4.6,0.0,33,0.00,CLR,,0.00,WeatherDisplay:10.37,2013-01-26 17:30:00,
2013-01-26 12:34:00,33.4,8.0,30.04,NNW,338,0.0,0.0,34,0.00,CLR,,0.00,WeatherDisplay:10.37,2013-01-26 17:34:00,
2013-01-26 12:35:00,32.7,7.4,30.04,WNW,292,0.0,0.9,34,0.00,CLR,,0.00,WeatherDisplay:10.37,2013-01-26 17:35:00,
2013-01-26 12:39:00,32.0,6.8,30.07,NNW,338,0.0,0.0,34,0.00,CLR,,0.00,WeatherDisplay:10.37,2013-01-26 17:39:00,
2013-01-26 12:40:00,31.1,5.3,30.07,NNW,338,0.0,0.0,33,0.00,CLR,,0.00,WeatherDisplay:10.37,2013-01-26 17:40:00,
2013-01-26 12:44:00,30.2,5.2,30.07,NNW,338,0.0,0.9,34,0.00,CLR,,0.00,WeatherDisplay:10.37,2013-01-26 17:44:00,
2013-01-26 12:45:00,30.2,5.2,30.07,NNE,22,0.0,0.0,34,0.00,CLR,,0.00,WeatherDisplay:10.37,2013-01-26 17:45:00,
2013-01-26 12:49:00,31.1,6.0,30.07,ENE,68,0.0,0.0,34,0.00,CLR,,0.00,WeatherDisplay:10.37,2013-01-26 17:49:00,
2013-01-26 12:50:00,31.3,6.1,30.07,ENE,68,2.6,0.0,34,0.00,CLR,,0.00,WeatherDisplay:10.37,2013-01-26 17:50:00,
2013-01-26 12:51:00,31.1,6.0,30.07,NNE,22,2.3,0.0,34,0.00,CLR,,0.00,WeatherDisplay:10.37,2013-01-26 17:51:00,
2013-01-26 12:54:00,30.7,5.6,30.07,ESE,112,0.0,0.0,34,0.00,CLR,,0.00,WeatherDisplay:10.37,2013-01-26 17:54:00,
2013-01-26 12:55:00,30.9,5.8,30.07,NW,315,0.0,0.0,34,0.00,CLR,,0.00,WeatherDisplay:10.37,2013-01-26 17:55:00,
2013-01-26 12:57:00,30.4,5.3,30.07,NNE,22,0.0,0.0,34,0.00,CLR,,0.00,WeatherDisplay:10.37,2013-01-26 17:57:00,
2013-01-26 12:59:00,30.6,5.5,30.07,North,0,0.0,0.0,34,0.00,CLR,,0.00,WeatherDisplay:10.37,2013-01-26 17:59:00,
2013-01-26 13:00:00,30.4,5.3,30.07,North,0,0.0,0.0,34,0.00,CLR,,0.00,WeatherDisplay:10.37,2013-01-26 18:00:00,
2013-01-26 13:02:00,30.6,5.5,30.07,NNE,22,0.0,0.0,34,0.00,CLR,,0.00,WeatherDisplay:10.37,2013-01-26 18:02:00,
2013-01-26 13:04:00,30.6,5.5,30.07,North,0,0.0,0.0,34,0.00,CLR,,0.00,WeatherDisplay:10.37,2013-01-26 18:04:00,
2013-01-26 13:05:00,30.6,5.5,30.07,NNW,338,0.0,0.0,34,0.00,CLR,,0.00,WeatherDisplay:10.37,2013-01-26 18:05:00,
2013-01-26 13:07:00,31.3,7.4,30.07,NNE,22,0.0,0.0,36,0.00,CLR,,0.00,WeatherDisplay:10.37,2013-01-26 18:07:00,
2013-01-26 13:09:00,31.3,6.8,30.07,ESE,112,0.0,0.0,35,0.00,CLR,,0.00,WeatherDisplay:10.37,2013-01-26 18:09:00,
2013-01-26 13:10:00,31.5,7.5,30.07,NNW,338,0.0,0.0,36,0.00,CLR,,0.00,WeatherDisplay:10.37,2013-01-26 18:10:00,
2013-01-26 13:12:00,31.3,7.4,30.07,NE,45,0.0,0.0,36,0.00,CLR,,0.00,WeatherDisplay:10.37,2013-01-26 18:12:00,
2013-01-26 13:14:00,31.6,7.7,30.07,NNE,22,0.0,0.0,36,0.00,CLR,,0.00,WeatherDisplay:10.37,2013-01-26 18:14:00,
2013-01-26 13:15:00,31.3,6.8,30.07,NNE,22,0.0,0.0,35,0.00,CLR,,0.00,WeatherDisplay:10.37,2013-01-26 18:15:00,
2013-01-26 13:17:00,30.4,5.3,30.07,East,90,5.8,5.8,34,0.00,CLR,,0.00,WeatherDisplay:10.37,2013-01-26 18:17:00,
2013-01-26 13:19:00,30.4,5.9,30.07,NNE,22,3.6,3.6,35,0.00,CLR,,0.00,WeatherDisplay:10.37,2013-01-26 18:19:00,
2013-01-26 13:21:00,29.7,5.3,30.07,ENE,68,3.5,3.8,35,0.00,CLR,,0.00,WeatherDisplay:10.37,2013-01-26 18:21:00,
2013-01-26 13:22:00,29.3,5.0,30.07,ENE,68,4.6,4.6,35,0.00,CLR,,0.00,WeatherDisplay:10.37,2013-01-26 18:22:00,
2013-01-26 13:24:00,29.5,5.1,30.10,ENE,68,1.6,0.0,35,0.00,CLR,,0.00,WeatherDisplay:10.37,2013-01-26 18:24:00,
2013-01-26 13:25:00,29.5,5.1,30.10,ENE,68,1.6,0.0,35,0.00,CLR,,0.00,WeatherDisplay:10.37,2013-01-26 18:25:00,
2013-01-26 13:26:00,29.5,5.1,30.10,NE,45,1.1,0.0,35,0.00,CLR,,0.00,WeatherDisplay:10.37,2013-01-26 18:26:00,
2013-01-26 13:27:00,30.7,6.9,30.10,East,90,3.5,3.5,36,0.00,CLR,,0.00,WeatherDisplay:10.37,2013-01-26 18:27:00,
2013-01-26 13:29:00,30.0,5.6,30.10,NNW,338,4.6,4.6,35,0.00,CLR,,0.00,WeatherDisplay:10.37,2013-01-26 18:29:00,
2013-01-26 13:30:00,29.8,6.1,30.10,NW,315,4.6,4.6,36,0.00,CLR,,0.00,WeatherDisplay:10.37,2013-01-26 18:30:00,
2013-01-26 13:31:00,29.8,6.1,30.10,NNE,22,1.1,0.0,36,0.00,CLR,,0.00,WeatherDisplay:10.37,2013-01-26 18:31:00,
2013-01-26 13:32:00,29.7,5.3,30.10,ENE,68,1.1,1.6,35,0.00,CLR,,0.00,WeatherDisplay:10.37,2013-01-26 18:32:00,
2013-01-26 13:34:00,29.7,5.9,30.10,NNE,22,3.5,3.5,36,0.00,CLR,,0.00,WeatherDisplay:10.37,2013-01-26 18:34:00,
2013-01-26 13:35:00,29.7,5.9,30.10,NNE,22,4.6,4.6,36,0.00,CLR,,0.00,WeatherDisplay:10.37,2013-01-26 18:35:00,
2013-01-26 13:36:00,28.8,5.1,30.10,ENE,68,3.5,3.5,36,0.00,CLR,,0.00,WeatherDisplay:10.37,2013-01-26 18:36:00,
2013-01-26 13:37:00,28.8,5.1,30.10,ENE,68,2.3,0.0,36,0.00,CLR,,0.00,WeatherDisplay:10.37,2013-01-26 18:37:00,
2013-01-26 13:39:00,29.5,7.5,30.10,NE,45,0.0,0.0,39,0.00,CLR,,0.00,WeatherDisplay:10.37,2013-01-26 18:39:00,
2013-01-26 13:40:00,29.5,7.5,30.10,NE,45,0.0,0.0,39,0.00,CLR,,0.00,WeatherDisplay:10.37,2013-01-26 18:40:00,
2013-01-26 13:42:00,29.5,7.5,30.10,NNE,22,2.6,2.6,39,0.00,CLR,,0.00,WeatherDisplay:10.37,2013-01-26 18:42:00,
2013-01-26 13:43:00,29.1,6.0,30.10,North,0,5.8,5.8,37,0.00,CLR,,0.00,WeatherDisplay:10.37,2013-01-26 18:43:00,
2013-01-26 13:45:00,29.3,6.2,30.10,NNW,338,3.5,0.0,37,0.00,CLR,,0.00,WeatherDisplay:10.37,2013-01-26 18:45:00,
2013-01-26 13:47:00,29.7,7.1,30.10,East,90,2.3,0.0,38,0.00,CLR,,0.00,WeatherDisplay:10.37,2013-01-26 18:47:00,
2013-01-26 13:48:00,29.5,7.0,30.10,NNE,22,2.3,0.0,38,0.00,CLR,,0.00,WeatherDisplay:10.37,2013-01-26 18:48:00,
2013-01-26 13:50:00,29.7,7.1,30.10,NNE,22,0.0,0.0,38,0.00,CLR,,0.00,WeatherDisplay:10.37,2013-01-26 18:50:00,
2013-01-26 13:52:00,29.7,7.7,30.10,East,90,2.3,2.3,39,0.00,CLR,,0.00,WeatherDisplay:10.37,2013-01-26 18:52:00,
2013-01-26 13:53:00,30.0,8.0,30.10,NNE,22,2.3,0.0,39,0.00,CLR,,0.00,WeatherDisplay:10.37,2013-01-26 18:53:00,
2013-01-26 13:55:00,29.8,7.9,30.10,NNE,22,3.5,3.5,39,0.00,CLR,,0.00,WeatherDisplay:10.37,2013-01-26 18:55:00,
2013-01-26 13:57:00,29.5,7.0,30.10,NNE,22,3.5,3.5,38,0.00,CLR,,0.00,WeatherDisplay:10.37,2013-01-26 18:57:00,
2013-01-26 13:58:00,29.5,7.0,30.10,NNE,22,3.5,3.5,38,0.00,CLR,,0.00,WeatherDisplay:10.37,2013-01-26 18:58:00,
2013-01-26 14:00:00,29.5,7.0,30.10,NNE,22,2.3,2.3,38,0.00,CLR,,0.00,WeatherDisplay:10.37,2013-01-26 19:00:00,
2013-01-26 14:02:00,29.1,6.6,30.10,ESE,112,3.5,3.5,38,0.00,CLR,,0.00,WeatherDisplay:10.37,2013-01-26 19:02:00,
2013-01-26 14:03:00,28.6,6.1,30.10,ESE,112,3.5,3.5,38,0.00,CLR,,0.00,WeatherDisplay:10.37,2013-01-26 19:03:00,
2013-01-26 14:05:00,27.9,6.1,30.10,East,90,2.6,2.6,39,0.00,CLR,,0.00,WeatherDisplay:10.37,2013-01-26 19:05:00,
2013-01-26 14:06:00,27.9,6.1,30.10,ESE,112,2.3,2.3,39,0.00,CLR,,0.00,WeatherDisplay:10.37,2013-01-26 19:06:00,
2013-01-26 14:07:00,27.7,5.9,30.10,ESE,112,0.0,0.0,39,0.00,CLR,,0.00,WeatherDisplay:10.37,2013-01-26 19:07:00,
2013-01-26 14:08:00,27.5,6.8,30.10,ESE,112,0.0,0.0,41,0.00,CLR,,0.00,WeatherDisplay:10.37,2013-01-26 19:08:00,
2013-01-26 14:10:00,27.3,6.7,30.10,ESE,112,4.6,4.6,41,0.00,CLR,,0.00,WeatherDisplay:10.37,2013-01-26 19:10:00,
2013-01-26 14:11:00,27.1,7.0,30.10,ESE,112,4.6,0.0,42,0.00,CLR,,0.00,WeatherDisplay:10.37,2013-01-26 19:11:00,
2013-01-26 14:12:00,27.0,6.9,30.10,ENE,68,1.1,1.1,42,0.00,CLR,,0.00,WeatherDisplay:10.37,2013-01-26 19:12:00,
2013-01-26 14:13:00,27.0,6.9,30.10,NNE,22,1.1,0.0,42,0.00,CLR,,0.00,WeatherDisplay:10.37,2013-01-26 19:13:00,
2013-01-26 14:15:00,27.1,7.0,30.10,ENE,68,3.5,3.5,42,0.00,CLR,,0.00,WeatherDisplay:10.37,2013-01-26 19:15:00,
2013-01-26 14:16:00,27.1,7.0,30.10,ENE,68,3.5,3.5,42,0.00,CLR,,0.00,WeatherDisplay:10.37,2013-01-26 19:16:00,
2013-01-26 14:17:00,27.3,7.2,30.10,East,90,3.5,3.5,42,0.00,CLR,,0.00,WeatherDisplay:10.37,2013-01-26 19:17:00,
2013-01-26 14:18:00,27.3,7.2,30.10,ENE,68,3.5,3.5,42,0.00,CLR,,0.00,WeatherDisplay:10.37,2013-01-26 19:18:00,
2013-01-26 14:21:00,26.8,6.7,30.10,WNW,292,4.6,4.6,42,0.00,CLR,,0.00,WeatherDisplay:10.37,2013-01-26 19:21:00,
2013-01-26 14:22:00,26.8,7.2,30.10,East,90,3.6,0.0,43,0.00,CLR,,0.00,WeatherDisplay:10.37,2013-01-26 19:22:00,
2013-01-26 14:23:00,26.8,7.2,30.10,East,90,3.6,3.6,43,0.00,CLR,,0.00,WeatherDisplay:10.37,2013-01-26 19:23:00,
2013-01-26 14:26:00,26.8,7.2,30.10,ESE,112,4.6,4.6,43,0.00,CLR,,0.00,WeatherDisplay:10.37,2013-01-26 19:26:00,
2013-01-26 14:27:00,26.6,7.6,30.10,ENE,68,4.6,4.6,44,0.00,CLR,,0.00,WeatherDisplay:10.37,2013-01-26 19:27:00,
2013-01-26 14:28:00,26.6,7.6,30.10,ESE,112,3.6,3.6,44,0.00,CLR,,0.00,WeatherDisplay:10.37,2013-01-26 19:28:00,
2013-01-26 14:31:00,27.0,7.9,30.10,ESE,112,1.1,0.0,44,0.00,CLR,,0.00,WeatherDisplay:10.37,2013-01-26 19:31:00,
2013-01-26 14:33:00,26.8,7.8,30.10,ENE,68,3.5,3.5,44,0.00,CLR,,0.00,WeatherDisplay:10.37,2013-01-26 19:33:00,
2013-01-26 14:36:00,26.4,7.9,30.10,NE,45,0.0,0.0,45,0.00,CLR,,0.00,WeatherDisplay:10.37,2013-01-26 19:36:00,
2013-01-26 14:38:00,26.4,8.4,30.10,ESE,112,3.5,3.5,46,0.00,CLR,,0.00,WeatherDisplay:10.37,2013-01-26 19:38:00,
2013-01-26 14:39:00,26.2,8.2,30.10,SSE,158,3.5,3.5,46,0.00,CLR,,0.00,WeatherDisplay:10.37,2013-01-26 19:39:00,
2013-01-26 14:41:00,26.4,8.9,30.10,East,90,0.0,0.0,47,0.00,CLR,,0.00,WeatherDisplay:10.37,2013-01-26 19:41:00,
2013-01-26 14:43:00,26.2,9.2,30.10,East,90,2.3,0.0,48,0.00,CLR,,0.00,WeatherDisplay:10.37,2013-01-26 19:43:00,
2013-01-26 14:44:00,26.2,9.2,30.10,ENE,68,2.3,0.0,48,0.00,CLR,,0.00,WeatherDisplay:10.37,2013-01-26 19:44:00,
2013-01-26 14:46:00,26.1,9.0,30.10,ESE,112,0.0,0.0,48,0.00,CLR,,0.00,WeatherDisplay:10.37,2013-01-26 19:46:00,
2013-01-26 14:49:00,25.7,9.2,30.10,ESE,112,0.0,0.0,49,0.00,CLR,,0.00,WeatherDisplay:10.37,2013-01-26 19:49:00,
2013-01-26 14:51:00,25.9,9.8,30.10,ESE,112,0.0,0.0,50,0.00,CLR,,0.00,WeatherDisplay:10.37,2013-01-26 19:51:00,
2013-01-26 14:54:00,25.9,10.2,30.10,ENE,68,0.0,0.0,51,0.00,CLR,,0.00,WeatherDisplay:10.37,2013-01-26 19:54:00,
2013-01-26 14:56:00,26.4,10.7,30.10,ESE,112,0.0,0.0,51,0.00,CLR,,0.00,WeatherDisplay:10.37,2013-01-26 19:56:00,
2013-01-26 14:59:00,26.2,10.5,30.10,ENE,68,0.0,0.0,51,0.00,CLR,,0.00,WeatherDisplay:10.37,2013-01-26 19:59:00,
2013-01-26 15:01:00,26.6,10.4,30.10,ENE,68,0.0,0.0,50,0.00,CLR,,0.00,WeatherDisplay:10.37,2013-01-26 20:01:00,
2013-01-26 15:04:00,27.0,10.3,30.10,ENE,68,0.0,0.0,49,0.00,CLR,,0.00,WeatherDisplay:10.37,2013-01-26 20:04:00,
2013-01-26 15:05:00,27.0,10.3,30.10,NE,45,0.0,0.0,49,0.00,CLR,,0.00,WeatherDisplay:10.37,2013-01-26 20:05:00,
2013-01-26 15:06:00,26.8,10.6,30.10,East,90,0.0,0.0,50,0.00,CLR,,0.00,WeatherDisplay:10.37,2013-01-26 20:06:00,
2013-01-26 15:07:00,26.8,10.6,30.10,ESE,112,0.0,0.0,50,0.00,CLR,,0.00,WeatherDisplay:10.37,2013-01-26 20:07:00,
2013-01-26 15:09:00,26.4,10.7,30.07,ESE,112,0.0,0.0,51,0.00,CLR,,0.00,WeatherDisplay:10.37,2013-01-26 20:09:00,
2013-01-26 15:10:00,26.4,10.7,30.07,NE,45,0.0,0.0,51,0.00,CLR,,0.00,WeatherDisplay:10.37,2013-01-26 20:10:00,
2013-01-26 15:12:00,26.4,10.7,30.07,ESE,112,0.0,0.0,51,0.00,CLR,,0.00,WeatherDisplay:10.37,2013-01-26 20:12:00,
2013-01-26 15:14:00,26.1,10.4,30.07,ESE,112,0.0,0.0,51,0.00,CLR,,0.00,WeatherDisplay:10.37,2013-01-26 20:14:00,
2013-01-26 15:15:00,25.9,10.6,30.07,ENE,68,0.0,0.0,52,0.00,CLR,,0.00,WeatherDisplay:10.37,2013-01-26 20:15:00,
2013-01-26 15:17:00,25.9,10.2,30.07,East,90,0.0,0.0,51,0.00,CLR,,0.00,WeatherDisplay:10.37,2013-01-26 20:17:00,
2013-01-26 15:20:00,25.5,10.7,30.07,SSW,202,0.0,0.0,53,0.00,CLR,,0.00,WeatherDisplay:10.37,2013-01-26 20:20:00,
2013-01-26 15:22:00,25.5,10.7,30.07,NNE,22,0.0,0.0,53,0.00,CLR,,0.00,WeatherDisplay:10.37,2013-01-26 20:22:00,
2013-01-26 15:25:00,25.7,10.9,30.10,ESE,112,0.0,0.0,53,0.00,CLR,,0.00,WeatherDisplay:10.37,2013-01-26 20:25:00,
2013-01-26 15:26:00,25.7,11.3,30.10,ESE,112,0.0,0.0,54,0.00,CLR,,0.00,WeatherDisplay:10.37,2013-01-26 20:26:00,
2013-01-26 15:27:00,25.3,11.0,30.10,ESE,112,0.0,0.0,54,0.00,CLR,,0.00,WeatherDisplay:10.37,2013-01-26 20:27:00,
2013-01-26 15:30:00,25.0,11.1,30.10,East,90,0.0,0.0,55,0.00,CLR,,0.00,WeatherDisplay:10.37,2013-01-26 20:30:00,
2013-01-26 15:31:00,25.0,11.5,30.10,ENE,68,0.0,0.0,56,0.00,CLR,,0.00,WeatherDisplay:10.37,2013-01-26 20:31:00,
2013-01-26 15:32:00,25.0,11.5,30.10,North,0,0.0,0.0,56,0.00,CLR,,0.00,WeatherDisplay:10.37,2013-01-26 20:32:00,
2013-01-26 15:33:00,25.0,11.5,30.10,East,90,0.0,0.0,56,0.00,CLR,,0.00,WeatherDisplay:10.37,2013-01-26 20:33:00,
2013-01-26 15:36:00,25.2,11.6,30.10,East,90,0.0,0.0,56,0.00,CLR,,0.00,WeatherDisplay:10.37,2013-01-26 20:36:00,
2013-01-26 15:37:00,25.2,11.2,30.10,East,90,0.0,0.0,55,0.00,CLR,,0.00,WeatherDisplay:10.37,2013-01-26 20:37:00,
2013-01-26 15:38:00,25.2,11.2,30.07,NNE,22,0.0,0.0,55,0.00,CLR,,0.00,WeatherDisplay:10.37,2013-01-26 20:38:00,
2013-01-26 15:41:00,25.0,11.5,30.07,NNE,22,0.0,0.0,56,0.00,CLR,,0.00,WeatherDisplay:10.37,2013-01-26 20:41:00,
2013-01-26 15:42:00,25.0,11.5,30.07,ESE,112,0.0,0.0,56,0.00,CLR,,0.00,WeatherDisplay:10.37,2013-01-26 20:42:00,
2013-01-26 15:43:00,24.8,11.7,30.07,NNW,338,0.0,0.0,57,0.00,CLR,,0.00,WeatherDisplay:10.37,2013-01-26 20:43:00,
2013-01-26 15:46:00,24.8,11.7,30.07,NNE,22,0.0,0.0,57,0.00,CLR,,0.00,WeatherDisplay:10.37,2013-01-26 20:46:00,
2013-01-26 15:47:00,24.8,12.1,30.07,NNE,22,0.0,0.0,58,0.00,CLR,,0.00,WeatherDisplay:10.37,2013-01-26 20:47:00,
2013-01-26 15:48:00,24.4,11.8,30.07,NNE,22,0.0,0.0,58,0.00,CLR,,0.00,WeatherDisplay:10.37,2013-01-26 20:48:00,
2013-01-26 15:51:00,24.3,12.0,30.07,NNE,22,0.0,0.0,59,0.00,CLR,,0.00,WeatherDisplay:10.37,2013-01-26 20:51:00,
2013-01-26 15:52:00,24.3,12.4,30.07,NNE,22,0.0,0.0,60,0.00,CLR,,0.00,WeatherDisplay:10.37,2013-01-26 20:52:00,
2013-01-26 15:53:00,24.3,12.4,30.10,ENE,68,0.0,0.0,60,0.00,CLR,,0.00,WeatherDisplay:10.37,2013-01-26 20:53:00,
2013-01-26 15:56:00,24.1,11.8,30.10,NE,45,0.0,0.0,59,0.00,CLR,,0.00,WeatherDisplay:10.37,2013-01-26 20:56:00,
2013-01-26 15:57:00,24.1,11.8,30.10,NE,45,0.0,0.0,59,0.00,CLR,,0.00,WeatherDisplay:10.37,2013-01-26 20:57:00,
2013-01-26 15:58:00,23.9,12.0,30.10,NE,45,0.0,0.0,60,0.00,CLR,,0.00,WeatherDisplay:10.37,2013-01-26 20:58:00,
2013-01-26 16:01:00,23.7,12.2,30.10,ENE,68,0.0,0.0,61,0.00,CLR,,0.00,WeatherDisplay:10.37,2013-01-26 21:01:00,
2013-01-26 16:02:00,23.7,12.2,30.10,ENE,68,0.0,0.0,61,0.00,CLR,,0.00,WeatherDisplay:10.37,2013-01-26 21:02:00,
2013-01-26 16:03:00,23.5,12.1,30.10,ENE,68,0.0,0.0,61,0.00,CLR,,0.00,WeatherDisplay:10.37,2013-01-26 21:03:00,
2013-01-26 16:07:00,23.4,11.9,30.10,East,90,0.0,0.0,61,0.00,CLR,,0.00,WeatherDisplay:10.37,2013-01-26 21:07:00,
2013-01-26 16:08:00,23.4,11.9,30.07,ESE,112,0.0,0.0,61,0.00,CLR,,0.00,WeatherDisplay:10.37,2013-01-26 21:08:00,
2013-01-26 16:12:00,23.2,11.7,30.07,ESE,112,0.0,0.0,61,0.00,CLR,,0.00,WeatherDisplay:10.37,2013-01-26 21:12:00,
2013-01-26 16:13:00,23.2,11.3,30.07,ESE,112,0.0,0.0,60,0.00,CLR,,0.00,WeatherDisplay:10.37,2013-01-26 21:13:00,
2013-01-26 16:17:00,23.2,11.3,30.07,ESE,112,0.0,0.0,60,0.00,CLR,,0.00,WeatherDisplay:10.37,2013-01-26 21:17:00,
2013-01-26 16:18:00,23.2,11.3,30.07,ESE,112,0.0,0.0,60,0.00,CLR,,0.00,WeatherDisplay:10.37,2013-01-26 21:18:00,
2013-01-26 16:19:00,22.8,11.0,30.07,ESE,112,0.0,0.0,60,0.00,CLR,,0.00,WeatherDisplay:10.37,2013-01-26 21:19:00,
2013-01-26 16:22:00,22.8,11.0,30.10,ESE,112,0.0,0.0,60,0.00,CLR,,0.00,WeatherDisplay:10.37,2013-01-26 21:22:00,
2013-01-26 16:23:00,22.8,11.0,30.10,ESE,112,0.0,0.0,60,0.00,CLR,,0.00,WeatherDisplay:10.37,2013-01-26 21:23:00,
2013-01-26 16:24:00,22.8,11.0,30.10,ESE,112,0.0,0.0,60,0.00,CLR,,0.00,WeatherDisplay:10.37,2013-01-26 21:24:00,
2013-01-26 16:28:00,22.6,11.2,30.10,ESE,112,0.0,0.0,61,0.00,CLR,,0.00,WeatherDisplay:10.37,2013-01-26 21:28:00,
2013-01-26 16:29:00,22.6,11.2,30.10,ESE,112,0.0,0.0,61,0.00,CLR,,0.00,WeatherDisplay:10.37,2013-01-26 21:29:00,
2013-01-26 16:33:00,22.5,10.7,30.10,ESE,112,0.0,0.0,60,0.00,CLR,,0.00,WeatherDisplay:10.37,2013-01-26 21:33:00,
2013-01-26 16:34:00,22.8,11.4,30.10,ESE,112,0.0,0.0,61,0.00,CLR,,0.00,WeatherDisplay:10.37,2013-01-26 21:34:00,
2013-01-26 16:38:00,22.6,11.2,30.13,ESE,112,0.0,0.0,61,0.00,CLR,,0.00,WeatherDisplay:10.37,2013-01-26 21:38:00,
2013-01-26 16:39:00,22.6,11.2,30.13,ESE,112,0.0,0.0,61,0.00,CLR,,0.00,WeatherDisplay:10.37,2013-01-26 21:39:00,
2013-01-26 16:43:00,22.6,11.2,30.13,East,90,0.0,0.0,61,0.00,CLR,,0.00,WeatherDisplay:10.37,2013-01-26 21:43:00,
2013-01-26 16:44:00,22.6,11.2,30.13,East,90,0.0,0.0,61,0.00,CLR,,0.00,WeatherDisplay:10.37,2013-01-26 21:44:00,
2013-01-26 16:48:00,22.6,11.2,30.13,East,90,0.0,0.0,61,0.00,CLR,,0.00,WeatherDisplay:10.37,2013-01-26 21:48:00,
2013-01-26 16:49:00,22.6,11.2,30.13,East,90,0.0,0.0,61,0.00,CLR,,0.00,WeatherDisplay:10.37,2013-01-26 21:49:00,
2013-01-26 16:53:00,22.6,11.2,30.13,East,90,0.0,0.0,61,0.00,CLR,,0.00,WeatherDisplay:10.37,2013-01-26 21:53:00,
2013-01-26 16:54:00,22.6,11.2,30.13,East,90,0.0,0.0,61,0.00,CLR,,0.00,WeatherDisplay:10.37,2013-01-26 21:54:00,
2013-01-26 16:59:00,22.6,11.2,30.13,East,90,0.0,0.0,61,0.00,CLR,,0.00,WeatherDisplay:10.37,2013-01-26 21:59:00,
2013-01-26 17:04:00,20.7,9.3,30.13,East,90,0.0,0.0,61,0.00,CLR,,0.00,WeatherDisplay:10.37,2013-01-26 22:04:00,
2013-01-26 17:05:00,20.7,9.3,30.13,East,90,0.0,0.0,61,0.00,CLR,,0.00,WeatherDisplay:10.37,2013-01-26 22:05:00,
2013-01-26 17:09:00,20.7,9.3,30.13,East,90,0.0,0.0,61,0.00,CLR,,0.00,WeatherDisplay:10.37,2013-01-26 22:09:00,
2013-01-26 17:10:00,20.7,9.3,30.13,East,90,0.0,0.0,61,0.00,CLR,,0.00,WeatherDisplay:10.37,2013-01-26 22:10:00,
2013-01-26 17:14:00,19.8,8.8,30.13,East,90,0.0,0.0,62,0.00,CLR,,0.00,WeatherDisplay:10.37,2013-01-26 22:14:00,
2013-01-26 17:15:00,19.6,8.7,30.13,East,90,0.0,0.0,62,0.00,CLR,,0.00,WeatherDisplay:10.37,2013-01-26 22:15:00,
2013-01-26 17:19:00,19.0,8.5,30.13,East,90,0.0,0.0,63,0.00,CLR,,0.00,WeatherDisplay:10.37,2013-01-26 22:19:00,
2013-01-26 17:20:00,19.0,8.5,30.13,East,90,0.0,0.0,63,0.00,CLR,,0.00,WeatherDisplay:10.37,2013-01-26 22:20:00,
2013-01-26 17:25:00,18.7,8.2,30.13,East,90,0.0,0.0,63,0.00,CLR,,0.00,WeatherDisplay:10.37,2013-01-26 22:25:00,
2013-01-26 17:26:00,18.7,8.2,30.13,East,90,0.0,0.0,63,0.00,CLR,,0.00,WeatherDisplay:10.37,2013-01-26 22:26:00,
2013-01-26 17:30:00,18.0,7.8,30.13,East,90,0.0,0.0,64,0.00,CLR,,0.00,WeatherDisplay:10.37,2013-01-26 22:30:00,
2013-01-26 17:31:00,18.0,7.8,30.13,East,90,0.0,0.0,64,0.00,CLR,,0.00,WeatherDisplay:10.37,2013-01-26 22:31:00,
2013-01-26 17:35:00,17.6,7.8,30.13,East,90,0.0,0.0,65,0.00,CLR,,0.00,WeatherDisplay:10.37,2013-01-26 22:35:00,
2013-01-26 17:36:00,17.6,7.8,30.13,East,90,0.0,0.0,65,0.00,CLR,,0.00,WeatherDisplay:10.37,2013-01-26 22:36:00,
2013-01-26 17:40:00,17.1,7.6,30.13,East,90,0.0,0.0,66,0.00,CLR,,0.00,WeatherDisplay:10.37,2013-01-26 22:40:00,
2013-01-26 17:41:00,17.1,7.6,30.13,East,90,0.0,0.0,66,0.00,CLR,,0.00,WeatherDisplay:10.37,2013-01-26 22:41:00,
2013-01-26 17:45:00,17.1,8.0,30.13,East,90,0.0,0.0,67,0.00,CLR,,0.00,WeatherDisplay:10.37,2013-01-26 22:45:00,
2013-01-26 17:46:00,17.1,8.0,30.13,East,90,0.0,0.0,67,0.00,CLR,,0.00,WeatherDisplay:10.37,2013-01-26 22:46:00,
2013-01-26 17:50:00,17.1,7.6,30.13,East,90,0.0,0.0,66,0.00,CLR,,0.00,WeatherDisplay:10.37,2013-01-26 22:50:00,
2013-01-26 17:51:00,17.1,7.6,30.13,East,90,0.0,0.0,66,0.00,CLR,,0.00,WeatherDisplay:10.37,2013-01-26 22:51:00,
2013-01-26 17:55:00,16.9,7.8,30.13,ENE,68,0.0,0.0,67,0.00,CLR,,0.00,WeatherDisplay:10.37,2013-01-26 22:55:00,
2013-01-26 17:56:00,16.9,7.8,30.13,ENE,68,0.0,0.0,67,0.00,CLR,,0.00,WeatherDisplay:10.37,2013-01-26 22:56:00,
2013-01-26 18:00:00,16.7,8.0,30.13,ENE,68,0.0,0.0,68,0.00,CLR,,0.00,WeatherDisplay:10.37,2013-01-26 23:00:00,
2013-01-26 18:01:00,16.7,8.0,30.13,ENE,68,0.0,0.0,68,0.00,CLR,,0.00,WeatherDisplay:10.37,2013-01-26 23:01:00,
2013-01-26 18:05:00,16.5,7.5,30.13,ENE,68,0.0,0.0,67,0.00,CLR,,0.00,WeatherDisplay:10.37,2013-01-26 23:05:00,
2013-01-26 18:06:00,16.5,7.5,30.13,ENE,68,0.0,0.0,67,0.00,CLR,,0.00,WeatherDisplay:10.37,2013-01-26 23:06:00,
2013-01-26 18:10:00,16.2,7.4,30.16,NNE,22,0.0,0.0,68,0.00,CLR,,0.00,WeatherDisplay:10.37,2013-01-26 23:10:00,
2013-01-26 18:11:00,16.2,7.4,30.16,NNE,22,0.0,0.0,68,0.00,CLR,,0.00,WeatherDisplay:10.37,2013-01-26 23:11:00,
2013-01-26 18:16:00,16.0,7.6,30.16,NNE,22,0.0,0.0,69,0.00,CLR,,0.00,WeatherDisplay:10.37,2013-01-26 23:16:00,
2013-01-26 18:17:00,16.0,7.6,30.16,NNE,22,0.0,0.0,69,0.00,CLR,,0.00,WeatherDisplay:10.37,2013-01-26 23:17:00,
2013-01-26 18:21:00,16.0,7.6,30.16,NNE,22,0.0,0.0,69,0.00,CLR,,0.00,WeatherDisplay:10.37,2013-01-26 23:21:00,
2013-01-26 18:22:00,16.0,7.9,30.16,NNE,22,0.0,0.0,70,0.00,CLR,,0.00,WeatherDisplay:10.37,2013-01-26 23:22:00,
2013-01-26 18:26:00,16.0,7.9,30.16,NNE,22,0.0,0.0,70,0.00,CLR,,0.00,WeatherDisplay:10.37,2013-01-26 23:26:00,
2013-01-26 18:27:00,15.8,8.1,30.16,NNE,22,0.0,0.0,71,0.00,CLR,,0.00,WeatherDisplay:10.37,2013-01-26 23:27:00,
2013-01-26 18:31:00,15.8,8.1,30.16,NNE,22,0.0,0.0,71,0.00,CLR,,0.00,WeatherDisplay:10.37,2013-01-26 23:31:00,
2013-01-26 18:32:00,15.8,8.1,30.16,NNE,22,0.0,0.0,71,0.00,CLR,,0.00,WeatherDisplay:10.37,2013-01-26 23:32:00,
2013-01-26 18:36:00,16.0,7.9,30.16,NNE,22,0.0,0.0,70,0.00,CLR,,0.00,WeatherDisplay:10.37,2013-01-26 23:36:00,
2013-01-26 18:37:00,16.2,8.4,30.16,NNE,22,0.0,0.0,71,0.00,CLR,,0.00,WeatherDisplay:10.37,2013-01-26 23:37:00,
2013-01-26 18:41:00,16.0,8.5,30.16,NNE,22,0.0,0.0,72,0.00,CLR,,0.00,WeatherDisplay:10.37,2013-01-26 23:41:00,
2013-01-26 18:42:00,16.0,8.5,30.16,NNE,22,0.0,0.0,72,0.00,CLR,,0.00,WeatherDisplay:10.37,2013-01-26 23:42:00,
2013-01-26 18:46:00,16.0,8.5,30.16,NNE,22,0.0,0.0,72,0.00,CLR,,0.00,WeatherDisplay:10.37,2013-01-26 23:46:00,
2013-01-26 18:47:00,16.0,8.5,30.16,NNE,22,0.0,0.0,72,0.00,CLR,,0.00,WeatherDisplay:10.37,2013-01-26 23:47:00,
2013-01-26 18:51:00,16.2,9.0,30.16,NNE,22,0.0,0.0,73,0.00,CLR,,0.00,WeatherDisplay:10.37,2013-01-26 23:51:00,
2013-01-26 18:52:00,16.2,9.0,30.16,NNE,22,0.0,0.0,73,0.00,CLR,,0.00,WeatherDisplay:10.37,2013-01-26 23:52:00,
2013-01-26 18:53:00,16.2,9.0,30.19,NNE,22,0.0,0.0,73,0.00,CLR,,0.00,WeatherDisplay:10.37,2013-01-26 23:53:00,
2013-01-26 18:56:00,16.2,9.0,30.19,NNE,22,0.0,0.0,73,0.00,CLR,,0.00,WeatherDisplay:10.37,2013-01-26 23:56:00,
2013-01-26 18:57:00,16.2,9.0,30.19,NNE,22,0.0,0.0,73,0.00,CLR,,0.00,WeatherDisplay:10.37,2013-01-26 23:57:00,
2013-01-26 18:58:00,16.0,8.8,30.19,NNE,22,0.0,0.0,73,0.00,CLR,,0.00,WeatherDisplay:10.37,2013-01-26 23:58:00,
2013-01-26 19:02:00,16.0,8.8,30.19,NNE,22,0.0,0.0,73,0.00,CLR,,0.00,WeatherDisplay:10.37,2013-01-27 00:02:00,
2013-01-26 19:03:00,16.0,8.8,30.19,NNE,22,0.0,0.0,73,0.00,CLR,,0.00,WeatherDisplay:10.37,2013-01-27 00:03:00,
2013-01-26 19:07:00,16.0,8.8,30.19,NNE,22,0.0,0.0,73,0.00,CLR,,0.00,WeatherDisplay:10.37,2013-01-27 00:07:00,
2013-01-26 19:08:00,16.0,8.8,30.16,NNE,22,0.0,0.0,73,0.00,CLR,,0.00,WeatherDisplay:10.37,2013-01-27 00:08:00,
2013-01-26 19:12:00,16.0,8.8,30.16,NNE,22,0.0,0.0,73,0.00,CLR,,0.00,WeatherDisplay:10.37,2013-01-27 00:12:00,
2013-01-26 19:13:00,16.0,8.8,30.16,NNE,22,0.0,0.0,73,0.00,CLR,,0.00,WeatherDisplay:10.37,2013-01-27 00:13:00,
2013-01-26 19:17:00,16.2,9.0,30.16,North,0,0.0,0.0,73,0.00,CLR,,0.00,WeatherDisplay:10.37,2013-01-27 00:17:00,
2013-01-26 19:18:00,16.2,9.0,30.16,North,0,0.0,0.0,73,0.00,CLR,,0.00,WeatherDisplay:10.37,2013-01-27 00:18:00,
2013-01-26 19:22:00,16.3,9.5,30.16,North,0,0.0,0.0,74,0.00,CLR,,0.00,WeatherDisplay:10.37,2013-01-27 00:22:00,
2013-01-26 19:23:00,16.3,9.5,30.16,North,0,0.0,0.0,74,0.00,CLR,,0.00,WeatherDisplay:10.37,2013-01-27 00:23:00,
2013-01-26 19:28:00,16.5,9.7,30.16,North,0,0.0,0.0,74,0.00,CLR,,0.00,WeatherDisplay:10.37,2013-01-27 00:28:00,
2013-01-26 19:29:00,16.5,9.7,30.16,North,0,0.0,0.0,74,0.00,CLR,,0.00,WeatherDisplay:10.37,2013-01-27 00:29:00,
2013-01-26 19:33:00,16.5,9.7,30.16,North,0,0.0,0.0,74,0.00,CLR,,0.00,WeatherDisplay:10.37,2013-01-27 00:33:00,
2013-01-26 19:34:00,16.5,9.7,30.16,North,0,0.0,0.0,74,0.00,CLR,,0.00,WeatherDisplay:10.37,2013-01-27 00:34:00,
2013-01-26 19:39:00,16.5,9.7,30.16,North,0,0.0,0.0,74,0.00,CLR,,0.00,WeatherDisplay:10.37,2013-01-27 00:39:00,
2013-01-26 19:44:00,16.5,9.7,30.16,North,0,0.0,0.0,74,0.00,CLR,,0.00,WeatherDisplay:10.37,2013-01-27 00:44:00,
2013-01-26 19:49:00,18.0,12.5,30.16,North,0,0.0,0.0,79,0.00,CLR,,0.00,WeatherDisplay:10.37,2013-01-27 00:49:00,
2013-01-26 19:54:00,18.1,12.7,30.13,North,0,0.0,0.0,79,0.00,CLR,,0.00,WeatherDisplay:10.37,2013-01-27 00:54:00,
2013-01-26 19:55:00,18.1,12.7,30.13,North,0,0.0,0.0,79,0.00,CLR,,0.00,WeatherDisplay:10.37,2013-01-27 00:55:00,
2013-01-26 19:59:00,18.3,13.2,30.13,North,0,0.0,0.0,80,0.00,CLR,,0.00,WeatherDisplay:10.37,2013-01-27 00:59:00,
2013-01-26 20:00:00,18.5,13.4,30.13,North,0,0.0,0.0,80,0.00,CLR,,0.00,WeatherDisplay:10.37,2013-01-27 01:00:00,
2013-01-26 20:04:00,18.5,13.4,30.13,North,0,0.0,0.0,80,0.00,CLR,,0.00,WeatherDisplay:10.37,2013-01-27 01:04:00,
2013-01-26 20:05:00,18.5,13.4,30.13,North,0,0.0,0.0,80,0.00,CLR,,0.00,WeatherDisplay:10.37,2013-01-27 01:05:00,
2013-01-26 20:09:00,18.7,13.2,30.16,North,0,0.0,0.0,79,0.00,CLR,,0.00,WeatherDisplay:10.37,2013-01-27 01:09:00,
2013-01-26 20:10:00,18.7,13.2,30.16,North,0,0.0,0.0,79,0.00,CLR,,0.00,WeatherDisplay:10.37,2013-01-27 01:10:00,
2013-01-26 20:14:00,18.7,13.2,30.16,North,0,0.0,0.0,79,0.00,CLR,,0.00,WeatherDisplay:10.37,2013-01-27 01:14:00,
2013-01-26 20:15:00,18.7,13.2,30.16,North,0,0.0,0.0,79,0.00,CLR,,0.00,WeatherDisplay:10.37,2013-01-27 01:15:00,
2013-01-26 20:19:00,18.7,13.2,30.16,North,0,0.0,0.0,79,0.00,CLR,,0.00,WeatherDisplay:10.37,2013-01-27 01:19:00,
2013-01-26 20:20:00,18.7,13.2,30.16,North,0,0.0,0.0,79,0.00,CLR,,0.00,WeatherDisplay:10.37,2013-01-27 01:20:00,
2013-01-26 20:24:00,18.7,13.2,30.16,North,0,0.0,0.0,79,0.00,CLR,,0.00,WeatherDisplay:10.37,2013-01-27 01:24:00,
2013-01-26 20:25:00,18.7,13.2,30.16,North,0,0.0,0.0,79,0.00,CLR,,0.00,WeatherDisplay:10.37,2013-01-27 01:25:00,
2013-01-26 20:29:00,18.7,13.2,30.16,North,0,0.0,0.0,79,0.00,CLR,,0.00,WeatherDisplay:10.37,2013-01-27 01:29:00,
2013-01-26 20:30:00,18.7,13.2,30.16,North,0,0.0,0.0,79,0.00,CLR,,0.00,WeatherDisplay:10.37,2013-01-27 01:30:00,
2013-01-26 20:35:00,18.7,13.2,30.16,North,0,0.0,0.0,79,0.00,CLR,,0.00,WeatherDisplay:10.37,2013-01-27 01:35:00,
2013-01-26 20:40:00,18.7,13.2,30.16,NNE,22,0.0,0.0,79,0.00,CLR,,0.00,WeatherDisplay:10.37,2013-01-27 01:40:00,
2013-01-26 20:45:00,20.1,12.5,30.16,NNE,22,0.0,0.0,72,0.00,CLR,,0.00,WeatherDisplay:10.37,2013-01-27 01:45:00,
2013-01-26 20:46:00,20.1,12.5,30.16,NNE,22,0.0,0.0,72,0.00,CLR,,0.00,WeatherDisplay:10.37,2013-01-27 01:46:00,
2013-01-26 20:50:00,20.3,12.1,30.16,NNE,22,0.0,0.0,70,0.00,CLR,,0.00,WeatherDisplay:10.37,2013-01-27 01:50:00,
2013-01-26 20:51:00,20.3,12.1,30.16,NNE,22,0.0,0.0,70,0.00,CLR,,0.00,WeatherDisplay:10.37,2013-01-27 01:51:00,
2013-01-26 20:55:00,20.3,11.1,30.16,NNE,22,0.0,0.0,67,0.00,CLR,,0.00,WeatherDisplay:10.37,2013-01-27 01:55:00,
2013-01-26 20:56:00,20.3,11.1,30.16,NNE,22,0.0,0.0,67,0.00,CLR,,0.00,WeatherDisplay:10.37,2013-01-27 01:56:00,
2013-01-26 21:00:00,20.5,10.2,30.16,NNE,22,0.0,0.9,64,0.00,CLR,,0.00,WeatherDisplay:10.37,2013-01-27 02:00:00,
2013-01-26 21:01:00,20.5,9.9,30.16,NNE,22,0.0,0.9,63,0.00,CLR,,0.00,WeatherDisplay:10.37,2013-01-27 02:01:00,
2013-01-26 21:02:00,20.5,9.9,30.16,NNE,22,0.0,0.9,63,0.00,CLR,,0.00,WeatherDisplay:10.37,2013-01-27 02:02:00,
2013-01-26 21:05:00,20.5,9.9,30.16,NNE,22,0.0,0.9,63,0.00,CLR,,0.00,WeatherDisplay:10.37,2013-01-27 02:05:00,
2013-01-26 21:06:00,20.5,9.9,30.16,NNE,22,0.0,0.9,63,0.00,CLR,,0.00,WeatherDisplay:10.37,2013-01-27 02:06:00,
2013-01-26 21:07:00,20.7,9.3,30.16,NNE,22,0.0,0.9,61,0.00,CLR,,0.00,WeatherDisplay:10.37,2013-01-27 02:07:00,
2013-01-26 21:10:00,20.7,9.3,30.16,NNE,22,0.0,0.9,61,0.00,CLR,,0.00,WeatherDisplay:10.37,2013-01-27 02:10:00,
2013-01-26 21:11:00,20.7,9.3,30.16,NNE,22,0.0,0.9,61,0.00,CLR,,0.00,WeatherDisplay:10.37,2013-01-27 02:11:00,
2013-01-26 21:12:00,20.7,9.3,30.16,NNE,22,0.0,0.9,61,0.00,CLR,,0.00,WeatherDisplay:10.37,2013-01-27 02:12:00,
2013-01-26 21:15:00,20.8,8.4,30.16,NNE,22,0.0,0.9,58,0.00,CLR,,0.00,WeatherDisplay:10.37,2013-01-27 02:15:00,
2013-01-26 21:16:00,20.8,8.4,30.16,NNE,22,0.0,0.9,58,0.00,CLR,,0.00,WeatherDisplay:10.37,2013-01-27 02:16:00,
2013-01-26 21:17:00,20.8,8.4,30.16,NNE,22,0.0,0.9,58,0.00,CLR,,0.00,WeatherDisplay:10.37,2013-01-27 02:17:00,
2013-01-26 21:20:00,20.8,8.4,30.16,NNE,22,0.0,0.9,58,0.00,CLR,,0.00,WeatherDisplay:10.37,2013-01-27 02:20:00,
2013-01-26 21:21:00,20.8,8.4,30.16,NNE,22,0.0,0.9,58,0.00,CLR,,0.00,WeatherDisplay:10.37,2013-01-27 02:21:00,
2013-01-26 21:22:00,20.8,8.4,30.16,NNE,22,0.0,0.9,58,0.00,CLR,,0.00,WeatherDisplay:10.37,2013-01-27 02:22:00,
2013-01-26 21:26:00,20.8,8.4,30.16,NNE,22,0.0,0.9,58,0.00,CLR,,0.00,WeatherDisplay:10.37,2013-01-27 02:26:00,
2013-01-26 21:27:00,20.8,8.4,30.16,NNE,22,0.0,0.9,58,0.00,CLR,,0.00,WeatherDisplay:10.37,2013-01-27 02:27:00,
2013-01-26 21:31:00,20.8,8.4,30.16,NNE,22,0.0,0.9,58,0.00,CLR,,0.00,WeatherDisplay:10.37,2013-01-27 02:31:00,
2013-01-26 21:32:00,20.7,8.6,30.16,NNE,22,0.0,0.9,59,0.00,CLR,,0.00,WeatherDisplay:10.37,2013-01-27 02:32:00,
2013-01-26 21:33:00,20.7,9.0,30.16,NNE,22,0.0,0.9,60,0.00,CLR,,0.00,WeatherDisplay:10.37,2013-01-27 02:33:00,
2013-01-26 21:36:00,20.7,9.0,30.16,NNE,22,0.0,0.9,60,0.00,CLR,,0.00,WeatherDisplay:10.37,2013-01-27 02:36:00,
2013-01-26 21:37:00,20.7,9.0,30.16,NNE,22,0.0,0.9,60,0.00,CLR,,0.00,WeatherDisplay:10.37,2013-01-27 02:37:00,
2013-01-26 21:38:00,20.7,9.0,30.19,NNE,22,0.0,0.9,60,0.00,CLR,,0.00,WeatherDisplay:10.37,2013-01-27 02:38:00,
2013-01-26 21:41:00,20.7,9.0,30.19,NNE,22,0.0,0.9,60,0.00,CLR,,0.00,WeatherDisplay:10.37,2013-01-27 02:41:00,
2013-01-26 21:42:00,20.7,9.0,30.19,NNE,22,0.0,0.9,60,0.00,CLR,,0.00,WeatherDisplay:10.37,2013-01-27 02:42:00,
2013-01-26 21:43:00,20.7,9.0,30.19,NNE,22,0.0,0.9,60,0.00,CLR,,0.00,WeatherDisplay:10.37,2013-01-27 02:43:00,
2013-01-26 21:46:00,20.7,9.3,30.19,NNE,22,0.0,0.9,61,0.00,CLR,,0.00,WeatherDisplay:10.37,2013-01-27 02:46:00,
2013-01-26 21:47:00,20.7,9.3,30.19,NNE,22,0.0,0.9,61,0.00,CLR,,0.00,WeatherDisplay:10.37,2013-01-27 02:47:00,
2013-01-26 21:48:00,20.7,9.3,30.19,NNE,22,0.0,0.9,61,0.00,CLR,,0.00,WeatherDisplay:10.37,2013-01-27 02:48:00,
2013-01-26 21:49:00,20.7,9.3,30.19,NNE,22,0.0,0.9,61,0.00,CLR,,0.00,WeatherDisplay:10.37,2013-01-27 02:49:00,
2013-01-26 21:51:00,20.7,9.3,30.19,NNE,22,0.0,0.9,61,0.00,CLR,,0.00,WeatherDisplay:10.37,2013-01-27 02:51:00,
2013-01-26 21:52:00,20.7,9.3,30.19,NNE,22,0.0,0.9,61,0.00,CLR,,0.00,WeatherDisplay:10.37,2013-01-27 02:52:00,
2013-01-26 21:53:00,20.7,9.3,30.19,NNE,22,0.0,0.9,61,0.00,CLR,,0.00,WeatherDisplay:10.37,2013-01-27 02:53:00,
2013-01-26 21:54:00,20.5,9.5,30.19,NNE,22,0.0,0.9,62,0.00,CLR,,0.00,WeatherDisplay:10.37,2013-01-27 02:54:00,
2013-01-26 21:56:00,20.5,9.9,30.19,NNE,22,0.0,0.9,63,0.00,CLR,,0.00,WeatherDisplay:10.37,2013-01-27 02:56:00,
2013-01-26 21:57:00,20.5,9.9,30.19,NNE,22,0.0,0.9,63,0.00,CLR,,0.00,WeatherDisplay:10.37,2013-01-27 02:57:00,
2013-01-26 21:58:00,20.5,9.9,30.19,NNE,22,0.0,0.9,63,0.00,CLR,,0.00,WeatherDisplay:10.37,2013-01-27 02:58:00,
2013-01-26 21:59:00,20.5,9.9,30.19,NNE,22,0.0,0.9,63,0.00,CLR,,0.00,WeatherDisplay:10.37,2013-01-27 02:59:00,
2013-01-26 22:01:00,20.5,10.6,30.19,NNE,22,0.0,0.0,65,0.00,CLR,,0.00,WeatherDisplay:10.37,2013-01-27 03:01:00,
2013-01-26 22:03:00,20.5,10.6,30.19,NNE,22,0.0,0.0,65,0.00,CLR,,0.00,WeatherDisplay:10.37,2013-01-27 03:03:00,
2013-01-26 22:04:00,20.3,10.4,30.19,NW,315,0.0,0.0,65,0.00,CLR,,0.00,WeatherDisplay:10.37,2013-01-27 03:04:00,
2013-01-26 22:06:00,20.3,10.7,30.19,NW,315,0.0,0.0,66,0.00,CLR,,0.00,WeatherDisplay:10.37,2013-01-27 03:06:00,
2013-01-26 22:08:00,20.3,10.7,30.19,NW,315,0.0,0.0,66,0.00,CLR,,0.00,WeatherDisplay:10.37,2013-01-27 03:08:00,
2013-01-26 22:10:00,20.3,10.7,30.19,NW,315,0.0,0.0,66,0.00,CLR,,0.00,WeatherDisplay:10.37,2013-01-27 03:10:00,
2013-01-26 22:11:00,20.3,11.1,30.19,NW,315,0.0,0.0,67,0.00,CLR,,0.00,WeatherDisplay:10.37,2013-01-27 03:11:00,
2013-01-26 22:13:00,20.3,11.1,30.19,NW,315,0.0,0.0,67,0.00,CLR,,0.00,WeatherDisplay:10.37,2013-01-27 03:13:00,
2013-01-26 22:15:00,20.3,11.4,30.19,NW,315,0.0,0.0,68,0.00,CLR,,0.00,WeatherDisplay:10.37,2013-01-27 03:15:00,
2013-01-26 22:16:00,20.3,11.4,30.19,NW,315,0.0,0.0,68,0.00,CLR,,0.00,WeatherDisplay:10.37,2013-01-27 03:16:00,
2013-01-26 22:18:00,20.3,11.4,30.19,NW,315,0.0,0.0,68,0.00,CLR,,0.00,WeatherDisplay:10.37,2013-01-27 03:18:00,
2013-01-26 22:20:00,20.3,11.4,30.19,NW,315,0.0,0.0,68,0.00,CLR,,0.00,WeatherDisplay:10.37,2013-01-27 03:20:00,
2013-01-26 22:21:00,20.3,11.4,30.19,NW,315,0.0,0.0,68,0.00,CLR,,0.00,WeatherDisplay:10.37,2013-01-27 03:21:00,
2013-01-26 22:23:00,20.1,11.2,30.19,NW,315,0.0,0.0,68,0.00,CLR,,0.00,WeatherDisplay:10.37,2013-01-27 03:23:00,
2013-01-26 22:26:00,20.1,11.2,30.19,NW,315,0.0,0.0,68,0.00,CLR,,0.00,WeatherDisplay:10.37,2013-01-27 03:26:00,
2013-01-26 22:28:00,20.1,11.2,30.19,NW,315,0.0,0.0,68,0.00,CLR,,0.00,WeatherDisplay:10.37,2013-01-27 03:28:00,
2013-01-26 22:29:00,20.1,11.2,30.19,NW,315,0.0,0.0,68,0.00,CLR,,0.00,WeatherDisplay:10.37,2013-01-27 03:29:00,
2013-01-26 22:31:00,20.1,11.2,30.19,NW,315,0.0,0.0,68,0.00,CLR,,0.00,WeatherDisplay:10.37,2013-01-27 03:31:00,
2013-01-26 22:32:00,20.1,11.2,30.19,NW,315,0.0,0.0,68,0.00,CLR,,0.00,WeatherDisplay:10.37,2013-01-27 03:32:00,
2013-01-26 22:33:00,20.1,11.2,30.19,NW,315,0.0,0.0,68,0.00,CLR,,0.00,WeatherDisplay:10.37,2013-01-27 03:33:00,
2013-01-26 22:34:00,19.9,11.1,30.19,NW,315,0.0,0.0,68,0.00,CLR,,0.00,WeatherDisplay:10.37,2013-01-27 03:34:00,
2013-01-26 22:36:00,20.1,11.2,30.19,NW,315,0.0,0.0,68,0.00,CLR,,0.00,WeatherDisplay:10.37,2013-01-27 03:36:00,
2013-01-26 22:37:00,19.9,11.1,30.19,NW,315,0.0,0.0,68,0.00,CLR,,0.00,WeatherDisplay:10.37,2013-01-27 03:37:00,
2013-01-26 22:38:00,19.9,11.1,30.22,NW,315,0.0,0.0,68,0.00,CLR,,0.00,WeatherDisplay:10.37,2013-01-27 03:38:00,
2013-01-26 22:39:00,19.9,11.1,30.22,NW,315,0.0,0.0,68,0.00,CLR,,0.00,WeatherDisplay:10.37,2013-01-27 03:39:00,
2013-01-26 22:41:00,19.9,11.1,30.22,NW,315,0.0,0.0,68,0.00,CLR,,0.00,WeatherDisplay:10.37,2013-01-27 03:41:00,
2013-01-26 22:42:00,19.9,10.7,30.22,NW,315,0.0,0.0,67,0.00,CLR,,0.00,WeatherDisplay:10.37,2013-01-27 03:42:00,
2013-01-26 22:44:00,19.9,11.1,30.22,NW,315,0.0,0.0,68,0.00,CLR,,0.00,WeatherDisplay:10.37,2013-01-27 03:44:00,
2013-01-26 22:46:00,20.1,11.2,30.22,NW,315,0.0,0.0,68,0.00,CLR,,0.00,WeatherDisplay:10.37,2013-01-27 03:46:00,
2013-01-26 22:47:00,20.1,11.2,30.22,NW,315,0.0,0.0,68,0.00,CLR,,0.00,WeatherDisplay:10.37,2013-01-27 03:47:00,
2013-01-26 22:49:00,20.1,11.2,30.22,NW,315,0.0,0.0,68,0.00,CLR,,0.00,WeatherDisplay:10.37,2013-01-27 03:49:00,
2013-01-26 22:50:00,20.1,11.2,30.22,NW,315,0.0,0.0,68,0.00,CLR,,0.00,WeatherDisplay:10.37,2013-01-27 03:50:00,
2013-01-26 22:51:00,20.1,11.2,30.22,NW,315,0.0,0.0,68,0.00,CLR,,0.00,WeatherDisplay:10.37,2013-01-27 03:51:00,
2013-01-26 22:52:00,20.1,11.2,30.22,NW,315,0.0,0.0,68,0.00,CLR,,0.00,WeatherDisplay:10.37,2013-01-27 03:52:00,
2013-01-26 22:54:00,20.1,11.2,30.22,NW,315,0.0,0.0,68,0.00,CLR,,0.00,WeatherDisplay:10.37,2013-01-27 03:54:00,
2013-01-26 22:55:00,20.1,11.2,30.22,NW,315,0.0,0.0,68,0.00,CLR,,0.00,WeatherDisplay:10.37,2013-01-27 03:55:00,
2013-01-26 22:56:00,20.1,11.2,30.22,NW,315,0.0,0.0,68,0.00,CLR,,0.00,WeatherDisplay:10.37,2013-01-27 03:56:00,
2013-01-26 22:57:00,20.1,11.2,30.22,NW,315,0.0,0.0,68,0.00,CLR,,0.00,WeatherDisplay:10.37,2013-01-27 03:57:00,
2013-01-26 22:59:00,20.1,11.2,30.22,NW,315,0.0,0.0,68,0.00,CLR,,0.00,WeatherDisplay:10.37,2013-01-27 03:59:00,
2013-01-26 23:00:00,20.1,11.2,30.22,NW,315,0.0,0.0,68,0.00,CLR,,0.00,WeatherDisplay:10.37,2013-01-27 04:00:00,
2013-01-26 23:01:00,20.1,11.2,30.22,NW,315,0.0,0.0,68,0.00,CLR,,0.00,WeatherDisplay:10.37,2013-01-27 04:01:00,
2013-01-26 23:02:00,20.1,11.2,30.22,NW,315,0.0,0.0,68,0.00,CLR,,0.00,WeatherDisplay:10.37,2013-01-27 04:02:00,
2013-01-26 23:04:00,20.1,11.2,30.22,NW,315,0.0,0.0,68,0.00,CLR,,0.00,WeatherDisplay:10.37,2013-01-27 04:04:00,
2013-01-26 23:05:00,20.1,11.2,30.22,NW,315,0.0,0.0,68,0.00,CLR,,0.00,WeatherDisplay:10.37,2013-01-27 04:05:00,
2013-01-26 23:06:00,20.1,11.2,30.22,NW,315,0.0,0.0,68,0.00,CLR,,0.00,WeatherDisplay:10.37,2013-01-27 04:06:00,
2013-01-26 23:07:00,20.1,11.2,30.22,NW,315,0.0,0.0,68,0.00,CLR,,0.00,WeatherDisplay:10.37,2013-01-27 04:07:00,
2013-01-26 23:10:00,20.1,11.2,30.22,NW,315,0.0,0.0,68,0.00,CLR,,0.00,WeatherDisplay:10.37,2013-01-27 04:10:00,
2013-01-26 23:11:00,20.1,11.2,30.22,NW,315,0.0,0.0,68,0.00,CLR,,0.00,WeatherDisplay:10.37,2013-01-27 04:11:00,
2013-01-26 23:12:00,20.1,11.2,30.22,NW,315,0.0,0.0,68,0.00,CLR,,0.00,WeatherDisplay:10.37,2013-01-27 04:12:00,
2013-01-26 23:15:00,20.1,11.6,30.22,NW,315,0.0,0.0,69,0.00,CLR,,0.00,WeatherDisplay:10.37,2013-01-27 04:15:00,
2013-01-26 23:16:00,20.1,11.6,30.22,NW,315,0.0,0.0,69,0.00,CLR,,0.00,WeatherDisplay:10.37,2013-01-27 04:16:00,
2013-01-26 23:17:00,20.1,11.6,30.22,NW,315,0.0,0.0,69,0.00,CLR,,0.00,WeatherDisplay:10.37,2013-01-27 04:17:00,
2013-01-26 23:20:00,20.1,11.6,30.22,NW,315,0.0,0.0,69,0.00,CLR,,0.00,WeatherDisplay:10.37,2013-01-27 04:20:00,
2013-01-26 23:21:00,19.9,11.4,30.22,NW,315,0.0,0.0,69,0.00,CLR,,0.00,WeatherDisplay:10.37,2013-01-27 04:21:00,
2013-01-26 23:22:00,19.9,11.7,30.22,NW,315,0.0,0.0,70,0.00,CLR,,0.00,WeatherDisplay:10.37,2013-01-27 04:22:00,
2013-01-26 23:25:00,19.9,11.7,30.22,NW,315,0.0,0.0,70,0.00,CLR,,0.00,WeatherDisplay:10.37,2013-01-27 04:25:00,
2013-01-26 23:26:00,19.9,11.7,30.22,NW,315,0.0,0.0,70,0.00,CLR,,0.00,WeatherDisplay:10.37,2013-01-27 04:26:00,
2013-01-26 23:28:00,19.8,11.6,30.22,NW,315,0.0,0.0,70,0.00,CLR,,0.00,WeatherDisplay:10.37,2013-01-27 04:28:00,
2013-01-26 23:30:00,19.8,11.6,30.22,NW,315,0.0,0.0,70,0.00,CLR,,0.00,WeatherDisplay:10.37,2013-01-27 04:30:00,
2013-01-26 23:32:00,19.8,11.9,30.22,NW,315,0.0,0.0,71,0.00,CLR,,0.00,WeatherDisplay:10.37,2013-01-27 04:32:00,
2013-01-26 23:34:00,19.8,11.9,30.22,NW,315,0.0,0.0,71,0.00,CLR,,0.00,WeatherDisplay:10.37,2013-01-27 04:34:00,
2013-01-26 23:35:00,19.8,11.9,30.22,NW,315,0.0,0.0,71,0.00,CLR,,0.00,WeatherDisplay:10.37,2013-01-27 04:35:00,
2013-01-26 23:37:00,19.8,11.9,30.22,NW,315,0.0,0.0,71,0.00,CLR,,0.00,WeatherDisplay:10.37,2013-01-27 04:37:00,
2013-01-26 23:39:00,19.6,11.7,30.22,NW,315,0.0,0.0,71,0.00,CLR,,0.00,WeatherDisplay:10.37,2013-01-27 04:39:00,
2013-01-26 23:40:00,19.6,11.7,30.22,NW,315,0.0,0.0,71,0.00,CLR,,0.00,WeatherDisplay:10.37,2013-01-27 04:40:00,
2013-01-26 23:42:00,19.6,12.0,30.22,NW,315,0.0,0.0,72,0.00,CLR,,0.00,WeatherDisplay:10.37,2013-01-27 04:42:00,
2013-01-26 23:44:00,19.6,12.0,30.22,NW,315,0.0,0.0,72,0.00,CLR,,0.00,WeatherDisplay:10.37,2013-01-27 04:44:00,
2013-01-26 23:45:00,19.6,12.0,30.22,NW,315,0.0,0.0,72,0.00,CLR,,0.00,WeatherDisplay:10.37,2013-01-27 04:45:00,
2013-01-26 23:48:00,19.6,12.0,30.22,NW,315,0.0,0.0,72,0.00,CLR,,0.00,WeatherDisplay:10.37,2013-01-27 04:48:00,
2013-01-26 23:49:00,19.6,12.0,30.22,NW,315,0.0,0.0,72,0.00,CLR,,0.00,WeatherDisplay:10.37,2013-01-27 04:49:00,
2013-01-26 23:50:00,19.6,12.0,30.22,NW,315,0.0,0.0,72,0.00,CLR,,0.00,WeatherDisplay:10.37,2013-01-27 04:50:00,
2013-01-26 23:53:00,19.6,12.3,30.22,NW,315,0.0,0.0,73,0.00,CLR,,0.00,WeatherDisplay:10.37,2013-01-27 04:53:00,
2013-01-26 23:54:00,19.6,12.3,30.22,NW,315,0.0,0.0,73,0.00,CLR,,0.00,WeatherDisplay:10.37,2013-01-27 04:54:00,
2013-01-26 23:55:00,19.6,12.3,30.22,NW,315,0.0,0.0,73,0.00,CLR,,0.00,WeatherDisplay:10.37,2013-01-27 04:55:00,
2013-01-26 23:58:00,19.6,12.3,30.22,NW,315,0.0,0.0,73,0.00,CLR,,0.00,WeatherDisplay:10.37,2013-01-27 04:58:00,
2013-01-26 23:59:00,19.6,12.3,30.22,NW,315,0.0,0.0,73,0.00,CLR,,0.00,WeatherDisplay:10.37,2013-01-27 04:59:00,